Time,TemperatureF,DewpointF,PressureIn,WindDirection,WindDirectionDegrees,WindSpeedMPH,WindSpeedGustMPH,Humidity,HourlyPrecipIn,Conditions,Clouds,dailyrainin,SoftwareType,DateUTC
2013-01-02 00:00:00,48.9,47.8,29.93,WSW,244,0.0,0.0,96,0.04,,---,0.25,VWS V13.01,2013-01-02 05:00:00,
2013-01-02 00:01:00,48.9,47.8,29.93,WSW,244,0.0,0.0,96,0.04,,---,0.00,VWS V13.01,2013-01-02 05:01:00,
2013-01-02 00:02:00,48.9,47.8,29.93,WSW,244,0.0,0.0,96,0.03,,---,0.00,VWS V13.01,2013-01-02 05:02:00,
2013-01-02 00:05:00,48.9,47.8,29.92,WSW,244,0.0,0.0,96,0.03,,---,0.00,VWS V13.01,2013-01-02 05:05:00,
2013-01-02 00:06:00,48.9,47.8,29.92,WSW,244,0.0,0.0,96,0.03,,---,0.00,VWS V13.01,2013-01-02 05:06:00,
2013-01-02 00:07:00,48.9,47.8,29.92,WSW,244,0.0,0.0,96,0.03,,---,0.00,VWS V13.01,2013-01-02 05:07:00,
2013-01-02 00:10:00,48.9,47.8,29.91,WSW,244,0.0,0.0,96,0.04,,---,0.01,VWS V13.01,2013-01-02 05:10:00,
2013-01-02 00:11:00,48.8,47.7,29.91,WSW,244,0.0,0.0,96,0.04,,---,0.01,VWS V13.01,2013-01-02 05:11:00,
2013-01-02 00:12:00,48.9,47.8,29.91,WSW,244,0.0,0.0,96,0.04,,---,0.01,VWS V13.01,2013-01-02 05:12:00,
2013-01-02 00:15:00,48.8,47.7,29.91,WSW,244,0.0,0.0,96,0.04,,---,0.01,VWS V13.01,2013-01-02 05:15:00,
2013-01-02 00:17:00,48.9,47.8,29.91,WSW,244,0.0,0.0,96,0.04,,---,0.01,VWS V13.01,2013-01-02 05:17:00,
2013-01-02 00:20:00,48.8,47.7,29.92,WSW,244,0.0,0.0,96,0.04,,---,0.01,VWS V13.01,2013-01-02 05:20:00,
2013-01-02 00:22:00,48.8,47.7,29.92,WSW,244,0.0,0.0,96,0.04,,---,0.01,VWS V13.01,2013-01-02 05:22:00,
2013-01-02 00:23:00,48.8,47.7,29.91,WSW,244,0.0,0.0,96,0.04,,---,0.01,VWS V13.01,2013-01-02 05:23:00,
2013-01-02 00:25:00,48.8,47.7,29.91,WSW,244,0.0,0.0,96,0.04,,---,0.01,VWS V13.01,2013-01-02 05:25:00,
2013-01-02 00:27:00,48.8,47.7,29.91,WSW,244,0.0,0.0,96,0.04,,---,0.01,VWS V13.01,2013-01-02 05:27:00,
2013-01-02 00:29:00,48.8,47.7,29.91,WSW,244,0.0,0.0,96,0.04,,---,0.01,VWS V13.01,2013-01-02 05:29:00,
2013-01-02 00:31:00,48.8,47.7,29.91,WSW,244,0.0,0.0,96,0.04,,---,0.01,VWS V13.01,2013-01-02 05:31:00,
2013-01-02 00:32:00,48.8,47.7,29.91,WSW,244,0.0,0.0,96,0.03,,---,0.01,VWS V13.01,2013-01-02 05:32:00,
2013-01-02 00:34:00,48.8,47.7,29.91,WSW,244,0.0,0.0,96,0.03,,---,0.01,VWS V13.01,2013-01-02 05:34:00,
2013-01-02 00:36:00,48.7,47.6,29.91,WSW,244,0.0,0.0,96,0.03,,---,0.01,VWS V13.01,2013-01-02 05:36:00,
2013-01-02 00:37:00,48.7,47.6,29.91,WSW,244,0.0,0.0,96,0.03,,---,0.01,VWS V13.01,2013-01-02 05:37:00,
2013-01-02 00:39:00,48.7,47.6,29.91,WSW,244,0.0,0.0,96,0.03,,---,0.01,VWS V13.01,2013-01-02 05:39:00,
2013-01-02 00:41:00,48.7,47.6,29.91,WSW,244,0.0,0.0,96,0.03,,---,0.01,VWS V13.01,2013-01-02 05:41:00,
2013-01-02 00:42:00,48.7,47.6,29.90,WSW,244,0.0,0.0,96,0.03,,---,0.01,VWS V13.01,2013-01-02 05:42:00,
2013-01-02 00:44:00,48.7,47.6,29.90,WSW,244,0.0,0.0,96,0.04,,---,0.02,VWS V13.01,2013-01-02 05:44:00,
2013-01-02 00:46:00,48.7,47.6,29.90,WSW,244,0.0,0.0,96,0.04,,---,0.02,VWS V13.01,2013-01-02 05:46:00,
2013-01-02 00:48:00,48.7,47.6,29.90,WSW,244,0.0,0.0,96,0.04,,---,0.02,VWS V13.01,2013-01-02 05:48:00,
2013-01-02 00:49:00,48.7,47.6,29.89,WSW,244,0.0,0.0,96,0.04,,---,0.02,VWS V13.01,2013-01-02 05:49:00,
2013-01-02 00:51:00,48.7,47.6,29.90,WSW,244,0.0,0.0,96,0.04,,---,0.02,VWS V13.01,2013-01-02 05:51:00,
2013-01-02 00:53:00,48.7,47.6,29.90,WSW,244,0.0,0.0,96,0.04,,---,0.02,VWS V13.01,2013-01-02 05:53:00,
2013-01-02 00:54:00,48.7,47.6,29.90,WSW,244,0.0,0.0,96,0.04,,---,0.02,VWS V13.01,2013-01-02 05:54:00,
2013-01-02 00:56:00,48.7,47.6,29.91,WSW,244,0.0,0.0,96,0.04,,---,0.02,VWS V13.01,2013-01-02 05:56:00,
2013-01-02 00:58:00,48.7,47.6,29.91,WSW,244,0.0,0.0,96,0.04,,---,0.02,VWS V13.01,2013-01-02 05:58:00,
2013-01-02 00:59:00,48.7,47.6,29.91,WSW,244,0.0,0.0,96,0.04,,---,0.02,VWS V13.01,2013-01-02 05:59:00,
2013-01-02 01:01:00,48.7,47.6,29.91,WSW,244,0.0,0.0,96,0.05,,---,0.03,VWS V13.01,2013-01-02 06:01:00,
2013-01-02 01:03:00,48.7,47.6,29.91,WSW,244,0.0,0.0,96,0.03,,---,0.03,VWS V13.01,2013-01-02 06:03:00,
2013-01-02 01:04:00,48.7,47.6,29.90,WSW,244,0.0,0.0,96,0.03,,---,0.03,VWS V13.01,2013-01-02 06:04:00,
2013-01-02 01:06:00,48.7,47.6,29.89,WSW,244,0.0,0.0,96,0.03,,---,0.04,VWS V13.01,2013-01-02 06:06:00,
2013-01-02 01:08:00,48.7,47.6,29.89,WSW,244,0.0,0.0,96,0.04,,---,0.04,VWS V13.01,2013-01-02 06:08:00,
2013-01-02 01:09:00,48.7,47.6,29.89,WSW,244,0.0,0.0,96,0.04,,---,0.04,VWS V13.01,2013-01-02 06:09:00,
2013-01-02 01:11:00,48.7,47.6,29.89,WSW,244,0.0,0.0,96,0.04,,---,0.04,VWS V13.01,2013-01-02 06:11:00,
2013-01-02 01:12:00,48.7,47.6,29.89,WSW,244,0.0,0.0,96,0.04,,---,0.04,VWS V13.01,2013-01-02 06:12:00,
2013-01-02 01:13:00,48.7,47.6,29.89,WSW,244,0.0,0.0,96,0.04,,---,0.04,VWS V13.01,2013-01-02 06:13:00,
2013-01-02 01:15:00,48.7,47.6,29.89,WSW,244,0.0,0.0,96,0.04,,---,0.04,VWS V13.01,2013-01-02 06:15:00,
2013-01-02 01:16:00,48.7,47.6,29.90,WSW,244,0.0,0.0,96,0.04,,---,0.05,VWS V13.01,2013-01-02 06:16:00,
2013-01-02 01:17:00,48.7,47.6,29.90,WSW,244,0.0,0.0,96,0.05,,---,0.05,VWS V13.01,2013-01-02 06:17:00,
2013-01-02 01:18:00,48.7,47.6,29.90,WSW,244,0.0,0.0,96,0.05,,---,0.05,VWS V13.01,2013-01-02 06:18:00,
2013-01-02 01:20:00,48.7,47.6,29.89,WSW,244,0.0,0.0,96,0.05,,---,0.05,VWS V13.01,2013-01-02 06:20:00,
2013-01-02 01:21:00,48.7,47.6,29.89,WSW,244,0.0,0.0,96,0.05,,---,0.05,VWS V13.01,2013-01-02 06:21:00,
2013-01-02 01:22:00,48.7,47.6,29.89,WSW,244,0.0,0.0,96,0.05,,---,0.05,VWS V13.01,2013-01-02 06:22:00,
2013-01-02 01:23:00,48.7,47.6,29.89,WSW,244,0.0,0.0,96,0.05,,---,0.05,VWS V13.01,2013-01-02 06:23:00,
2013-01-02 01:25:00,48.7,47.6,29.89,WSW,244,0.0,0.0,96,0.05,,---,0.05,VWS V13.01,2013-01-02 06:25:00,
2013-01-02 01:26:00,48.7,47.6,29.89,WSW,244,0.0,0.0,96,0.05,,---,0.05,VWS V13.01,2013-01-02 06:26:00,
2013-01-02 01:27:00,48.7,47.6,29.89,WSW,244,0.0,0.0,96,0.05,,---,0.05,VWS V13.01,2013-01-02 06:27:00,
2013-01-02 01:28:00,48.7,47.6,29.89,WSW,244,0.0,0.0,96,0.05,,---,0.05,VWS V13.01,2013-01-02 06:28:00,
2013-01-02 01:30:00,48.7,47.6,29.89,WSW,244,0.0,0.0,96,0.05,,---,0.05,VWS V13.01,2013-01-02 06:30:00,
2013-01-02 01:31:00,48.6,47.5,29.90,WSW,244,0.0,0.0,96,0.04,,---,0.05,VWS V13.01,2013-01-02 06:31:00,
2013-01-02 01:32:00,48.6,47.5,29.90,WSW,244,0.0,0.0,96,0.04,,---,0.05,VWS V13.01,2013-01-02 06:32:00,
2013-01-02 01:33:00,48.6,47.5,29.90,WSW,244,0.0,0.0,96,0.05,,---,0.06,VWS V13.01,2013-01-02 06:33:00,
2013-01-02 01:35:00,48.6,47.5,29.89,WSW,244,0.0,0.0,96,0.05,,---,0.06,VWS V13.01,2013-01-02 06:35:00,
2013-01-02 01:37:00,48.6,47.5,29.90,WSW,244,0.0,0.0,96,0.05,,---,0.06,VWS V13.01,2013-01-02 06:37:00,
2013-01-02 01:39:00,48.6,47.5,29.90,WSW,244,0.0,0.0,96,0.05,,---,0.06,VWS V13.01,2013-01-02 06:39:00,
2013-01-02 01:40:00,48.6,47.5,29.90,WSW,244,0.0,0.0,96,0.05,,---,0.07,VWS V13.01,2013-01-02 06:40:00,
2013-01-02 01:42:00,48.6,47.5,29.90,WSW,244,0.0,0.0,96,0.06,,---,0.07,VWS V13.01,2013-01-02 06:42:00,
2013-01-02 01:44:00,48.6,47.5,29.90,WSW,244,0.0,0.0,96,0.06,,---,0.07,VWS V13.01,2013-01-02 06:44:00,
2013-01-02 01:45:00,48.5,47.4,29.90,WSW,244,0.0,0.0,96,0.06,,---,0.07,VWS V13.01,2013-01-02 06:45:00,
2013-01-02 01:47:00,48.5,47.4,29.90,WSW,244,1.0,2.0,96,0.06,,---,0.07,VWS V13.01,2013-01-02 06:47:00,
2013-01-02 01:49:00,48.5,47.4,29.91,WSW,244,0.0,2.0,96,0.07,,---,0.08,VWS V13.01,2013-01-02 06:49:00,
2013-01-02 01:50:00,48.5,47.4,29.90,WSW,244,0.0,2.0,96,0.07,,---,0.08,VWS V13.01,2013-01-02 06:50:00,
2013-01-02 01:52:00,48.5,47.4,29.90,WSW,244,0.0,2.0,96,0.07,,---,0.08,VWS V13.01,2013-01-02 06:52:00,
2013-01-02 01:54:00,48.5,47.4,29.90,WSW,244,0.0,2.0,96,0.07,,---,0.08,VWS V13.01,2013-01-02 06:54:00,
2013-01-02 01:55:00,48.5,47.4,29.90,WSW,244,0.0,2.0,96,0.07,,---,0.08,VWS V13.01,2013-01-02 06:55:00,
2013-01-02 01:57:00,48.5,47.4,29.90,WSW,244,0.0,2.0,96,0.08,,---,0.09,VWS V13.01,2013-01-02 06:57:00,
2013-01-02 01:58:00,48.5,47.4,29.90,WSW,244,0.0,2.0,96,0.08,,---,0.09,VWS V13.01,2013-01-02 06:58:00,
2013-01-02 01:59:00,48.5,47.4,29.91,WSW,244,0.0,2.0,96,0.08,,---,0.09,VWS V13.01,2013-01-02 06:59:00,
2013-01-02 02:00:00,48.5,47.4,29.90,WSW,244,0.0,2.0,96,0.08,,---,0.09,VWS V13.01,2013-01-02 07:00:00,
2013-01-02 02:03:00,48.4,47.3,29.91,WSW,244,0.0,0.0,96,0.07,,---,0.10,VWS V13.01,2013-01-02 07:03:00,
2013-01-02 02:04:00,48.4,47.3,29.91,WSW,244,0.0,0.0,96,0.07,,---,0.10,VWS V13.01,2013-01-02 07:04:00,
2013-01-02 02:05:00,48.4,47.3,29.92,WSW,244,0.0,0.0,96,0.07,,---,0.11,VWS V13.01,2013-01-02 07:05:00,
2013-01-02 02:08:00,48.4,47.3,29.90,WSW,244,1.0,1.0,96,0.08,,---,0.11,VWS V13.01,2013-01-02 07:08:00,
2013-01-02 02:09:00,48.4,47.3,29.90,WSW,244,0.0,2.0,96,0.08,,---,0.11,VWS V13.01,2013-01-02 07:09:00,
2013-01-02 02:10:00,48.4,47.3,29.90,WSW,244,0.0,2.0,96,0.08,,---,0.11,VWS V13.01,2013-01-02 07:10:00,
2013-01-02 02:13:00,48.4,47.3,29.90,WSW,244,0.0,2.0,96,0.09,,---,0.12,VWS V13.01,2013-01-02 07:13:00,
2013-01-02 02:14:00,48.4,47.3,29.91,WSW,244,0.0,2.0,96,0.09,,---,0.12,VWS V13.01,2013-01-02 07:14:00,
2013-01-02 02:15:00,48.4,47.3,29.91,WSW,244,0.0,2.0,96,0.09,,---,0.12,VWS V13.01,2013-01-02 07:15:00,
2013-01-02 02:18:00,48.4,47.3,29.90,WSW,244,0.0,2.0,96,0.09,,---,0.12,VWS V13.01,2013-01-02 07:18:00,
2013-01-02 02:20:00,48.4,47.3,29.90,WSW,244,0.0,2.0,96,0.09,,---,0.12,VWS V13.01,2013-01-02 07:20:00,
2013-01-02 02:23:00,48.3,47.2,29.90,WSW,244,0.0,2.0,96,0.09,,---,0.12,VWS V13.01,2013-01-02 07:23:00,
2013-01-02 02:25:00,48.3,47.2,29.90,WSW,244,0.0,2.0,96,0.09,,---,0.12,VWS V13.01,2013-01-02 07:25:00,
2013-01-02 02:28:00,48.3,47.2,29.90,WSW,244,0.0,2.0,96,0.09,,---,0.12,VWS V13.01,2013-01-02 07:28:00,
2013-01-02 02:30:00,48.3,47.2,29.91,WSW,244,0.0,2.0,96,0.09,,---,0.12,VWS V13.01,2013-01-02 07:30:00,
2013-01-02 02:33:00,48.2,47.1,29.91,WSW,244,0.0,2.0,96,0.07,,---,0.12,VWS V13.01,2013-01-02 07:33:00,
2013-01-02 02:35:00,48.2,47.1,29.91,WSW,244,0.0,2.0,96,0.07,,---,0.12,VWS V13.01,2013-01-02 07:35:00,
2013-01-02 02:36:00,48.2,47.1,29.91,WSW,244,1.0,2.0,96,0.07,,---,0.12,VWS V13.01,2013-01-02 07:36:00,
2013-01-02 02:38:00,48.2,47.1,29.91,WSW,244,0.0,2.0,96,0.07,,---,0.13,VWS V13.01,2013-01-02 07:38:00,
2013-01-02 02:39:00,48.2,47.1,29.91,WSW,244,1.0,2.0,96,0.08,,---,0.13,VWS V13.01,2013-01-02 07:39:00,
2013-01-02 02:40:00,48.2,47.1,29.91,WSW,244,1.0,3.0,96,0.08,,---,0.13,VWS V13.01,2013-01-02 07:40:00,
2013-01-02 02:41:00,48.2,47.1,29.90,WSW,244,4.0,4.0,96,0.08,,---,0.13,VWS V13.01,2013-01-02 07:41:00,
2013-01-02 02:43:00,48.2,47.1,29.89,ENE,75,0.0,4.0,96,0.08,,---,0.13,VWS V13.01,2013-01-02 07:43:00,
2013-01-02 02:44:00,48.2,47.1,29.88,ENE,71,3.0,4.0,96,0.08,,---,0.13,VWS V13.01,2013-01-02 07:44:00,
2013-01-02 02:45:00,48.2,47.1,29.89,ESE,102,0.0,4.0,96,0.08,,---,0.13,VWS V13.01,2013-01-02 07:45:00,
2013-01-02 02:46:00,48.2,47.1,29.90,ESE,103,0.0,4.0,96,0.08,,---,0.13,VWS V13.01,2013-01-02 07:46:00,
2013-01-02 02:48:00,48.2,47.1,29.90,East,84,2.0,4.0,96,0.08,,---,0.13,VWS V13.01,2013-01-02 07:48:00,
2013-01-02 02:49:00,48.1,47.0,29.90,East,83,0.0,4.0,96,0.08,,---,0.13,VWS V13.01,2013-01-02 07:49:00,
2013-01-02 02:50:00,48.1,47.0,29.91,NE,34,1.0,4.0,96,0.08,,---,0.13,VWS V13.01,2013-01-02 07:50:00,
2013-01-02 02:51:00,48.1,47.0,29.91,NE,34,0.0,4.0,96,0.08,,---,0.13,VWS V13.01,2013-01-02 07:51:00,
2013-01-02 02:53:00,48.1,47.0,29.91,NE,34,0.0,4.0,96,0.08,,---,0.13,VWS V13.01,2013-01-02 07:53:00,
2013-01-02 02:55:00,48.1,47.0,29.90,NE,35,0.0,4.0,96,0.08,,---,0.13,VWS V13.01,2013-01-02 07:55:00,
2013-01-02 02:56:00,48.1,47.0,29.90,NE,35,0.0,4.0,96,0.08,,---,0.13,VWS V13.01,2013-01-02 07:56:00,
2013-01-02 02:57:00,48.1,47.0,29.91,NE,35,0.0,4.0,96,0.08,,---,0.13,VWS V13.01,2013-01-02 07:57:00,
2013-01-02 02:58:00,48.1,47.0,29.91,NE,53,2.0,4.0,96,0.08,,---,0.13,VWS V13.01,2013-01-02 07:58:00,
2013-01-02 03:00:00,48.0,46.9,29.90,ENE,59,0.0,4.0,96,0.08,,---,0.13,VWS V13.01,2013-01-02 08:00:00,
2013-01-02 03:01:00,48.0,46.9,29.91,ENE,59,0.0,0.0,96,0.08,,---,0.13,VWS V13.01,2013-01-02 08:01:00,
2013-01-02 03:02:00,48.0,46.9,29.91,NE,48,2.0,3.0,96,0.04,,---,0.13,VWS V13.01,2013-01-02 08:02:00,
2013-01-02 03:03:00,48.0,46.9,29.92,NNE,18,0.0,4.0,96,0.04,,---,0.13,VWS V13.01,2013-01-02 08:03:00,
2013-01-02 03:05:00,48.0,46.9,29.92,NNE,18,0.0,4.0,96,0.04,,---,0.13,VWS V13.01,2013-01-02 08:05:00,
2013-01-02 03:06:00,48.0,46.9,29.92,NNE,18,2.0,4.0,96,0.04,,---,0.13,VWS V13.01,2013-01-02 08:06:00,
2013-01-02 03:07:00,47.9,46.8,29.91,NNE,19,1.0,4.0,96,0.04,,---,0.13,VWS V13.01,2013-01-02 08:07:00,
2013-01-02 03:08:00,47.9,46.8,29.91,NNE,18,0.0,4.0,96,0.04,,---,0.13,VWS V13.01,2013-01-02 08:08:00,
2013-01-02 03:11:00,47.9,46.8,29.92,NNE,19,0.0,4.0,96,0.04,,---,0.13,VWS V13.01,2013-01-02 08:11:00,
2013-01-02 03:12:00,47.9,46.8,29.92,NNE,19,0.0,4.0,96,0.04,,---,0.13,VWS V13.01,2013-01-02 08:12:00,
2013-01-02 03:13:00,47.9,46.8,29.92,NNE,24,0.0,4.0,96,0.04,,---,0.13,VWS V13.01,2013-01-02 08:13:00,
2013-01-02 03:16:00,47.8,46.7,29.91,NNE,24,0.0,4.0,96,0.04,,---,0.13,VWS V13.01,2013-01-02 08:16:00,
2013-01-02 03:18:00,47.8,46.7,29.91,NE,37,3.0,5.0,96,0.04,,---,0.13,VWS V13.01,2013-01-02 08:18:00,
2013-01-02 03:21:00,47.7,46.6,29.91,NE,45,4.0,5.0,96,0.04,,---,0.13,VWS V13.01,2013-01-02 08:21:00,
2013-01-02 03:23:00,47.7,46.6,29.90,NE,48,0.0,5.0,96,0.04,,---,0.13,VWS V13.01,2013-01-02 08:23:00,
2013-01-02 03:26:00,47.6,46.5,29.91,NNE,29,0.0,7.0,96,0.04,,---,0.13,VWS V13.01,2013-01-02 08:26:00,
2013-01-02 03:28:00,47.6,46.5,29.90,NE,40,0.0,7.0,96,0.04,,---,0.13,VWS V13.01,2013-01-02 08:28:00,
2013-01-02 03:31:00,47.5,46.4,29.91,NE,45,3.0,5.0,96,0.04,,---,0.13,VWS V13.01,2013-01-02 08:31:00,
2013-01-02 03:33:00,47.5,46.4,29.91,NE,45,0.0,5.0,96,0.01,,---,0.13,VWS V13.01,2013-01-02 08:33:00,
2013-01-02 03:34:00,47.4,46.3,29.91,NE,44,0.0,5.0,96,0.01,,---,0.13,VWS V13.01,2013-01-02 08:34:00,
2013-01-02 03:36:00,47.4,46.3,29.92,NE,44,0.0,5.0,96,0.01,,---,0.13,VWS V13.01,2013-01-02 08:36:00,
2013-01-02 03:38:00,47.4,46.3,29.92,NE,47,1.0,5.0,96,0.01,,---,0.13,VWS V13.01,2013-01-02 08:38:00,
2013-01-02 03:39:00,47.4,46.3,29.92,NE,46,2.0,5.0,96,0.01,,---,0.13,VWS V13.01,2013-01-02 08:39:00,
2013-01-02 03:41:00,47.3,46.2,29.92,NE,44,0.0,6.0,96,0.01,,---,0.13,VWS V13.01,2013-01-02 08:41:00,
2013-01-02 03:43:00,47.2,46.1,29.93,ENE,60,6.0,7.0,96,0.02,,---,0.14,VWS V13.01,2013-01-02 08:43:00,
2013-01-02 03:44:00,47.2,46.1,29.92,NE,40,2.0,9.0,96,0.02,,---,0.14,VWS V13.01,2013-01-02 08:44:00,
2013-01-02 03:46:00,47.2,46.1,29.92,NE,40,6.0,9.0,96,0.02,,---,0.14,VWS V13.01,2013-01-02 08:46:00,
2013-01-02 03:48:00,47.0,45.9,29.92,ENE,74,3.0,9.0,96,0.02,,---,0.14,VWS V13.01,2013-01-02 08:48:00,
2013-01-02 03:49:00,47.0,45.9,29.92,ENE,69,2.0,9.0,96,0.02,,---,0.14,VWS V13.01,2013-01-02 08:49:00,
2013-01-02 03:51:00,46.9,45.8,29.92,NE,45,4.0,11.0,96,0.02,,---,0.14,VWS V13.01,2013-01-02 08:51:00,
2013-01-02 03:53:00,46.9,45.8,29.92,NE,34,0.0,11.0,96,0.02,,---,0.14,VWS V13.01,2013-01-02 08:53:00,
2013-01-02 03:54:00,46.9,45.8,29.92,NE,34,0.0,11.0,96,0.02,,---,0.14,VWS V13.01,2013-01-02 08:54:00,
2013-01-02 03:56:00,46.8,45.7,29.92,North,5,5.0,11.0,96,0.02,,---,0.14,VWS V13.01,2013-01-02 08:56:00,
2013-01-02 03:59:00,46.7,45.6,29.92,NE,37,8.0,11.0,96,0.02,,---,0.14,VWS V13.01,2013-01-02 08:59:00,
2013-01-02 04:01:00,46.5,45.4,29.92,NE,42,0.0,3.0,96,0.02,,---,0.14,VWS V13.01,2013-01-02 09:01:00,
2013-01-02 04:02:00,46.5,45.4,29.93,NE,42,0.0,3.0,96,0.01,,---,0.14,VWS V13.01,2013-01-02 09:02:00,
2013-01-02 04:04:00,46.4,45.3,29.93,NNE,26,6.0,10.0,96,0.01,,---,0.14,VWS V13.01,2013-01-02 09:04:00,
2013-01-02 04:06:00,46.3,45.2,29.93,NNE,26,2.0,10.0,96,0.01,,---,0.14,VWS V13.01,2013-01-02 09:06:00,
2013-01-02 04:07:00,46.3,45.2,29.93,NNE,30,5.0,10.0,96,0.01,,---,0.14,VWS V13.01,2013-01-02 09:07:00,
2013-01-02 04:09:00,46.2,45.1,29.93,North,350,2.0,10.0,96,0.01,,---,0.14,VWS V13.01,2013-01-02 09:09:00,
2013-01-02 04:12:00,46.1,45.0,29.93,NE,56,4.0,10.0,96,0.01,,---,0.14,VWS V13.01,2013-01-02 09:12:00,
2013-01-02 04:14:00,46.0,44.9,29.93,NE,42,6.0,13.0,96,0.02,,---,0.15,VWS V13.01,2013-01-02 09:14:00,
2013-01-02 04:17:00,45.8,44.7,29.92,NE,38,6.0,13.0,96,0.02,,---,0.15,VWS V13.01,2013-01-02 09:17:00,
2013-01-02 04:19:00,45.7,44.6,29.93,NNE,27,4.0,13.0,96,0.02,,---,0.15,VWS V13.01,2013-01-02 09:19:00,
2013-01-02 04:22:00,45.5,44.4,29.93,NNE,32,1.0,13.0,96,0.02,,---,0.15,VWS V13.01,2013-01-02 09:22:00,
2013-01-02 04:24:00,45.4,44.3,29.93,NE,48,5.0,13.0,96,0.02,,---,0.15,VWS V13.01,2013-01-02 09:24:00,
2013-01-02 04:27:00,45.2,44.1,29.93,ENE,59,4.0,13.0,96,0.02,,---,0.15,VWS V13.01,2013-01-02 09:27:00,
2013-01-02 04:29:00,45.0,43.9,29.93,NE,40,2.0,13.0,96,0.02,,---,0.15,VWS V13.01,2013-01-02 09:29:00,
2013-01-02 04:32:00,45.0,43.9,29.93,NE,45,6.0,13.0,96,0.02,,---,0.15,VWS V13.01,2013-01-02 09:32:00,
2013-01-02 04:34:00,44.8,43.7,29.93,NE,48,0.0,13.0,96,0.02,,---,0.15,VWS V13.01,2013-01-02 09:34:00,
2013-01-02 04:37:00,44.6,43.5,29.93,NE,55,5.0,13.0,96,0.02,,---,0.15,VWS V13.01,2013-01-02 09:37:00,
2013-01-02 04:38:00,44.6,43.5,29.93,NE,53,5.0,13.0,96,0.02,,---,0.15,VWS V13.01,2013-01-02 09:38:00,
2013-01-02 04:39:00,44.5,43.4,29.93,ENE,69,0.0,13.0,96,0.02,,---,0.15,VWS V13.01,2013-01-02 09:39:00,
2013-01-02 04:42:00,44.4,43.3,29.93,ENE,72,0.0,13.0,96,0.02,,---,0.15,VWS V13.01,2013-01-02 09:42:00,
2013-01-02 04:43:00,44.4,43.3,29.94,NE,51,2.0,13.0,96,0.02,,---,0.15,VWS V13.01,2013-01-02 09:43:00,
2013-01-02 04:44:00,44.3,43.2,29.94,NNE,29,0.0,13.0,96,0.02,,---,0.15,VWS V13.01,2013-01-02 09:44:00,
2013-01-02 04:47:00,44.2,43.1,29.93,ENE,67,4.0,13.0,96,0.02,,---,0.15,VWS V13.01,2013-01-02 09:47:00,
2013-01-02 04:48:00,44.2,43.1,29.93,ENE,64,1.0,13.0,96,0.02,,---,0.15,VWS V13.01,2013-01-02 09:48:00,
2013-01-02 04:49:00,44.1,43.0,29.94,NE,43,4.0,13.0,96,0.02,,---,0.15,VWS V13.01,2013-01-02 09:49:00,
2013-01-02 04:52:00,44.0,42.9,29.94,NE,45,0.0,13.0,96,0.02,,---,0.15,VWS V13.01,2013-01-02 09:52:00,
2013-01-02 04:53:00,44.0,42.9,29.94,NE,45,0.0,13.0,96,0.02,,---,0.15,VWS V13.01,2013-01-02 09:53:00,
2013-01-02 04:54:00,44.0,42.9,29.94,NE,45,0.0,13.0,96,0.02,,---,0.15,VWS V13.01,2013-01-02 09:54:00,
2013-01-02 04:55:00,44.0,42.9,29.94,NE,34,0.0,13.0,96,0.02,,---,0.15,VWS V13.01,2013-01-02 09:55:00,
2013-01-02 04:57:00,43.9,42.8,29.94,NE,51,0.0,13.0,96,0.02,,---,0.15,VWS V13.01,2013-01-02 09:57:00,
2013-01-02 04:58:00,43.9,42.8,29.94,ENE,71,2.0,13.0,96,0.02,,---,0.15,VWS V13.01,2013-01-02 09:58:00,
2013-01-02 04:59:00,43.9,42.8,29.94,ENE,70,0.0,13.0,96,0.02,,---,0.16,VWS V13.01,2013-01-02 09:59:00,
2013-01-02 05:00:00,43.9,42.8,29.95,ENE,64,0.0,13.0,96,0.03,,---,0.16,VWS V13.01,2013-01-02 10:00:00,
2013-01-02 05:02:00,43.8,42.7,29.95,ENE,64,0.0,0.0,96,0.02,,---,0.16,VWS V13.01,2013-01-02 10:02:00,
2013-01-02 05:03:00,43.8,42.7,29.95,ENE,64,0.0,1.0,96,0.02,,---,0.16,VWS V13.01,2013-01-02 10:03:00,
2013-01-02 05:04:00,43.8,42.7,29.95,ENE,62,0.0,2.0,96,0.02,,---,0.16,VWS V13.01,2013-01-02 10:04:00,
2013-01-02 05:06:00,43.8,42.7,29.95,ENE,62,0.0,2.0,96,0.02,,---,0.16,VWS V13.01,2013-01-02 10:06:00,
2013-01-02 05:07:00,43.8,42.7,29.95,ENE,59,3.0,3.0,96,0.02,,---,0.16,VWS V13.01,2013-01-02 10:07:00,
2013-01-02 05:08:00,43.7,42.6,29.95,ENE,59,0.0,3.0,96,0.02,,---,0.16,VWS V13.01,2013-01-02 10:08:00,
2013-01-02 05:10:00,43.7,42.6,29.95,ENE,58,2.0,3.0,96,0.02,,---,0.16,VWS V13.01,2013-01-02 10:10:00,
2013-01-02 05:11:00,43.7,42.6,29.95,ENE,58,0.0,4.0,96,0.02,,---,0.16,VWS V13.01,2013-01-02 10:11:00,
2013-01-02 05:12:00,43.7,42.6,29.95,NNE,13,0.0,5.0,96,0.02,,---,0.16,VWS V13.01,2013-01-02 10:12:00,
2013-01-02 05:13:00,43.7,42.6,29.94,North,9,2.0,5.0,96,0.02,,---,0.16,VWS V13.01,2013-01-02 10:13:00,
2013-01-02 05:15:00,43.6,42.5,29.94,North,9,1.0,5.0,96,0.02,,---,0.16,VWS V13.01,2013-01-02 10:15:00,
2013-01-02 05:16:00,43.6,42.5,29.94,NE,54,5.0,9.0,96,0.02,,---,0.16,VWS V13.01,2013-01-02 10:16:00,
2013-01-02 05:17:00,43.6,42.5,29.94,NE,53,7.0,9.0,96,0.02,,---,0.16,VWS V13.01,2013-01-02 10:17:00,
2013-01-02 05:19:00,43.6,42.5,29.94,North,349,1.0,9.0,96,0.02,,---,0.16,VWS V13.01,2013-01-02 10:19:00,
2013-01-02 05:20:00,43.6,42.5,29.94,NNW,346,3.0,9.0,96,0.02,,---,0.16,VWS V13.01,2013-01-02 10:20:00,
2013-01-02 05:21:00,43.5,42.4,29.94,North,350,0.0,9.0,96,0.02,,---,0.16,VWS V13.01,2013-01-02 10:21:00,
2013-01-02 05:23:00,43.5,42.4,29.95,North,350,1.0,9.0,96,0.02,,---,0.16,VWS V13.01,2013-01-02 10:23:00,
2013-01-02 05:24:00,43.5,42.4,29.95,North,350,1.0,9.0,96,0.02,,---,0.16,VWS V13.01,2013-01-02 10:24:00,
2013-01-02 05:25:00,43.4,42.3,29.95,NNE,33,0.0,9.0,96,0.02,,---,0.16,VWS V13.01,2013-01-02 10:25:00,
2013-01-02 05:26:00,43.4,42.3,29.95,NE,46,0.0,9.0,96,0.02,,---,0.16,VWS V13.01,2013-01-02 10:26:00,
2013-01-02 05:28:00,43.4,42.3,29.95,NE,44,2.0,9.0,96,0.02,,---,0.16,VWS V13.01,2013-01-02 10:28:00,
2013-01-02 05:29:00,43.4,42.3,29.95,NNW,339,4.0,9.0,96,0.02,,---,0.16,VWS V13.01,2013-01-02 10:29:00,
2013-01-02 05:30:00,43.4,42.3,29.95,NNE,19,0.0,9.0,96,0.02,,---,0.16,VWS V13.01,2013-01-02 10:30:00,
2013-01-02 05:31:00,43.3,42.2,29.95,NNE,26,3.0,4.0,96,0.02,,---,0.16,VWS V13.01,2013-01-02 10:31:00,
2013-01-02 05:33:00,43.3,42.2,29.96,NNW,338,9.0,11.0,96,0.01,,---,0.16,VWS V13.01,2013-01-02 10:33:00,
2013-01-02 05:34:00,43.3,42.2,29.97,NNE,28,3.0,11.0,96,0.01,,---,0.16,VWS V13.01,2013-01-02 10:34:00,
2013-01-02 05:35:00,43.2,42.1,29.97,NNE,28,2.0,11.0,96,0.01,,---,0.16,VWS V13.01,2013-01-02 10:35:00,
2013-01-02 05:36:00,43.2,42.1,29.97,NNE,30,3.0,11.0,96,0.01,,---,0.16,VWS V13.01,2013-01-02 10:36:00,
2013-01-02 05:38:00,43.2,42.1,29.97,NNE,21,0.0,11.0,96,0.01,,---,0.16,VWS V13.01,2013-01-02 10:38:00,
2013-01-02 05:39:00,43.2,42.1,29.97,North,360,6.0,11.0,96,0.01,,---,0.16,VWS V13.01,2013-01-02 10:39:00,
2013-01-02 05:40:00,43.1,42.0,29.97,North,355,2.0,11.0,96,0.01,,---,0.16,VWS V13.01,2013-01-02 10:40:00,
2013-01-02 05:41:00,43.1,42.0,29.97,NNE,17,2.0,11.0,96,0.01,,---,0.16,VWS V13.01,2013-01-02 10:41:00,
2013-01-02 05:43:00,43.1,42.0,29.97,North,355,6.0,11.0,96,0.01,,---,0.16,VWS V13.01,2013-01-02 10:43:00,
2013-01-02 05:44:00,43.0,41.9,29.97,NNE,13,3.0,11.0,96,0.01,,---,0.16,VWS V13.01,2013-01-02 10:44:00,
2013-01-02 05:45:00,43.0,41.9,29.97,NNE,13,1.0,11.0,96,0.01,,---,0.16,VWS V13.01,2013-01-02 10:45:00,
2013-01-02 05:47:00,43.0,41.9,29.96,NNE,12,3.0,11.0,96,0.01,,---,0.16,VWS V13.01,2013-01-02 10:47:00,
2013-01-02 05:48:00,43.0,41.9,29.97,NNE,12,4.0,11.0,96,0.01,,---,0.16,VWS V13.01,2013-01-02 10:48:00,
2013-01-02 05:49:00,42.9,41.8,29.96,NNE,12,0.0,11.0,96,0.01,,---,0.16,VWS V13.01,2013-01-02 10:49:00,
2013-01-02 05:50:00,42.9,41.8,29.96,NNE,12,0.0,11.0,96,0.01,,---,0.16,VWS V13.01,2013-01-02 10:50:00,
2013-01-02 05:52:00,42.9,41.8,29.96,North,11,0.0,11.0,96,0.01,,---,0.16,VWS V13.01,2013-01-02 10:52:00,
2013-01-02 05:53:00,42.9,41.8,29.96,North,11,0.0,11.0,96,0.01,,---,0.16,VWS V13.01,2013-01-02 10:53:00,
2013-01-02 05:55:00,42.9,41.8,29.96,NNE,12,0.0,11.0,96,0.01,,---,0.16,VWS V13.01,2013-01-02 10:55:00,
2013-01-02 05:57:00,42.9,41.8,29.96,NNE,13,0.0,11.0,96,0.01,,---,0.16,VWS V13.01,2013-01-02 10:57:00,
2013-01-02 05:59:00,42.8,41.7,29.96,NNE,33,6.0,11.0,96,0.02,,---,0.17,VWS V13.01,2013-01-02 10:59:00,
2013-01-02 06:00:00,42.8,41.7,29.96,NE,44,3.0,11.0,96,0.02,,---,0.17,VWS V13.01,2013-01-02 11:00:00,
2013-01-02 06:02:00,42.8,41.7,29.96,NE,44,0.0,2.0,96,0.01,,---,0.17,VWS V13.01,2013-01-02 11:02:00,
2013-01-02 06:04:00,42.7,41.6,29.96,NE,45,4.0,5.0,96,0.01,,---,0.17,VWS V13.01,2013-01-02 11:04:00,
2013-01-02 06:05:00,42.8,41.7,29.96,NE,45,0.0,5.0,96,0.01,,---,0.17,VWS V13.01,2013-01-02 11:05:00,
2013-01-02 06:07:00,42.7,41.6,29.97,NE,45,0.0,5.0,96,0.01,,---,0.17,VWS V13.01,2013-01-02 11:07:00,
2013-01-02 06:09:00,42.7,41.6,29.97,NE,45,0.0,5.0,96,0.01,,---,0.17,VWS V13.01,2013-01-02 11:09:00,
2013-01-02 06:10:00,42.7,41.6,29.97,NE,45,0.0,5.0,96,0.01,,---,0.17,VWS V13.01,2013-01-02 11:10:00,
2013-01-02 06:12:00,42.7,41.6,29.96,NE,45,0.0,5.0,96,0.01,,---,0.17,VWS V13.01,2013-01-02 11:12:00,
2013-01-02 06:14:00,42.7,41.6,29.97,NE,45,0.0,5.0,96,0.01,,---,0.17,VWS V13.01,2013-01-02 11:14:00,
2013-01-02 06:15:00,42.7,41.6,29.96,NE,45,0.0,5.0,96,0.01,,---,0.17,VWS V13.01,2013-01-02 11:15:00,
2013-01-02 06:17:00,42.6,41.5,29.96,NE,45,0.0,5.0,96,0.01,,---,0.17,VWS V13.01,2013-01-02 11:17:00,
2013-01-02 06:19:00,42.6,41.5,29.96,NE,45,0.0,5.0,96,0.01,,---,0.17,VWS V13.01,2013-01-02 11:19:00,
2013-01-02 06:20:00,42.6,41.5,29.96,NE,45,0.0,5.0,96,0.01,,---,0.17,VWS V13.01,2013-01-02 11:20:00,
2013-01-02 06:21:00,42.6,41.5,29.96,NE,45,0.0,5.0,96,0.01,,---,0.17,VWS V13.01,2013-01-02 11:21:00,
2013-01-02 06:22:00,42.6,41.5,29.96,NE,45,0.0,5.0,96,0.01,,---,0.17,VWS V13.01,2013-01-02 11:22:00,
2013-01-02 06:24:00,42.6,41.5,29.96,NE,45,0.0,5.0,96,0.01,,---,0.17,VWS V13.01,2013-01-02 11:24:00,
2013-01-02 06:25:00,42.6,41.5,29.96,NE,45,0.0,5.0,96,0.01,,---,0.17,VWS V13.01,2013-01-02 11:25:00,
2013-01-02 06:26:00,42.6,41.5,29.97,NE,45,0.0,5.0,96,0.01,,---,0.17,VWS V13.01,2013-01-02 11:26:00,
2013-01-02 06:27:00,42.6,41.5,29.97,NE,45,0.0,5.0,96,0.01,,---,0.17,VWS V13.01,2013-01-02 11:27:00,
2013-01-02 06:30:00,42.6,41.5,29.97,NE,45,0.0,5.0,96,0.01,,---,0.17,VWS V13.01,2013-01-02 11:30:00,
2013-01-02 06:31:00,42.6,41.5,29.97,NE,45,0.0,0.0,96,0.01,,---,0.17,VWS V13.01,2013-01-02 11:31:00,
2013-01-02 06:32:00,42.6,41.5,29.97,NE,45,0.0,0.0,96,0.01,,---,0.17,VWS V13.01,2013-01-02 11:32:00,
2013-01-02 06:35:00,42.6,41.5,29.97,NE,45,0.0,1.0,96,0.01,,---,0.17,VWS V13.01,2013-01-02 11:35:00,
2013-01-02 06:36:00,42.6,41.5,29.97,NE,45,0.0,1.0,96,0.01,,---,0.17,VWS V13.01,2013-01-02 11:36:00,
2013-01-02 06:37:00,42.6,41.5,29.97,NE,45,0.0,1.0,96,0.01,,---,0.17,VWS V13.01,2013-01-02 11:37:00,
2013-01-02 06:40:00,42.6,41.5,29.96,NE,45,0.0,1.0,96,0.01,,---,0.17,VWS V13.01,2013-01-02 11:40:00,
2013-01-02 06:41:00,42.6,41.5,29.96,NE,45,0.0,1.0,96,0.01,,---,0.17,VWS V13.01,2013-01-02 11:41:00,
2013-01-02 06:42:00,42.6,41.5,29.96,NE,45,1.0,1.0,96,0.01,,---,0.17,VWS V13.01,2013-01-02 11:42:00,
2013-01-02 06:45:00,42.6,41.5,29.96,NE,45,0.0,3.0,96,0.01,,---,0.17,VWS V13.01,2013-01-02 11:45:00,
2013-01-02 06:46:00,42.6,41.5,29.96,NE,45,2.0,3.0,96,0.01,,---,0.17,VWS V13.01,2013-01-02 11:46:00,
2013-01-02 06:47:00,42.6,41.5,29.96,NE,45,2.0,3.0,96,0.01,,---,0.17,VWS V13.01,2013-01-02 11:47:00,
2013-01-02 06:50:00,42.6,41.5,29.95,NE,45,2.0,3.0,96,0.01,,---,0.17,VWS V13.01,2013-01-02 11:50:00,
2013-01-02 06:51:00,42.6,41.5,29.96,NE,45,0.0,3.0,96,0.01,,---,0.17,VWS V13.01,2013-01-02 11:51:00,
2013-01-02 06:52:00,42.6,41.5,29.96,NE,45,0.0,3.0,96,0.01,,---,0.17,VWS V13.01,2013-01-02 11:52:00,
2013-01-02 06:55:00,42.6,41.5,29.96,NE,45,0.0,3.0,96,0.01,,---,0.17,VWS V13.01,2013-01-02 11:55:00,
2013-01-02 06:56:00,42.7,41.6,29.96,NE,45,0.0,3.0,96,0.01,,---,0.17,VWS V13.01,2013-01-02 11:56:00,
2013-01-02 06:57:00,42.6,41.5,29.96,NE,45,0.0,3.0,96,0.01,,---,0.17,VWS V13.01,2013-01-02 11:57:00,
2013-01-02 07:00:00,42.6,41.5,29.96,NE,45,0.0,3.0,96,0.01,,---,0.17,VWS V13.01,2013-01-02 12:00:00,
2013-01-02 07:02:00,42.6,41.5,29.97,NE,45,0.0,0.0,96,0.00,,---,0.17,VWS V13.01,2013-01-02 12:02:00,
2013-01-02 07:05:00,42.6,41.5,29.97,NE,45,0.0,0.0,96,0.00,,---,0.17,VWS V13.01,2013-01-02 12:05:00,
2013-01-02 07:07:00,42.6,41.5,29.97,NE,45,0.0,0.0,96,0.00,,---,0.17,VWS V13.01,2013-01-02 12:07:00,
2013-01-02 07:10:00,42.6,41.5,29.98,NE,45,0.0,3.0,96,0.00,,---,0.17,VWS V13.01,2013-01-02 12:10:00,
2013-01-02 07:12:00,42.6,41.5,29.98,NE,45,0.0,3.0,96,0.00,,---,0.17,VWS V13.01,2013-01-02 12:12:00,
2013-01-02 07:16:00,42.7,41.6,29.98,NE,45,0.0,3.0,96,0.00,,---,0.17,VWS V13.01,2013-01-02 12:16:00,
2013-01-02 07:17:00,42.6,41.5,29.98,NE,44,0.0,3.0,96,0.00,,---,0.17,VWS V13.01,2013-01-02 12:17:00,
2013-01-02 07:21:00,42.6,41.5,29.98,NE,44,4.0,4.0,96,0.00,,---,0.17,VWS V13.01,2013-01-02 12:21:00,
2013-01-02 07:22:00,42.7,41.6,29.98,NE,44,3.0,4.0,96,0.00,,---,0.17,VWS V13.01,2013-01-02 12:22:00,
2013-01-02 07:23:00,42.6,41.5,29.98,NE,44,0.0,4.0,96,0.00,,---,0.17,VWS V13.01,2013-01-02 12:23:00,
2013-01-02 07:26:00,42.6,41.5,29.98,NE,46,0.0,5.0,96,0.00,,---,0.17,VWS V13.01,2013-01-02 12:26:00,
2013-01-02 07:27:00,42.6,41.5,29.98,NE,46,3.0,5.0,96,0.00,,---,0.17,VWS V13.01,2013-01-02 12:27:00,
2013-01-02 07:28:00,42.6,41.5,29.98,NE,45,0.0,5.0,96,0.00,,---,0.17,VWS V13.01,2013-01-02 12:28:00,
2013-01-02 07:31:00,42.6,41.5,29.98,NE,45,1.0,3.0,96,0.00,,---,0.17,VWS V13.01,2013-01-02 12:31:00,
2013-01-02 07:32:00,42.6,41.5,29.98,NE,46,0.0,3.0,96,0.00,,---,0.17,VWS V13.01,2013-01-02 12:32:00,
2013-01-02 07:33:00,42.5,41.4,29.98,NE,46,2.0,3.0,96,0.00,,---,0.17,VWS V13.01,2013-01-02 12:33:00,
2013-01-02 07:36:00,42.5,41.4,29.99,NE,46,0.0,3.0,96,0.00,,---,0.17,VWS V13.01,2013-01-02 12:36:00,
2013-01-02 07:37:00,42.5,41.4,29.99,NE,45,4.0,4.0,96,0.00,,---,0.17,VWS V13.01,2013-01-02 12:37:00,
2013-01-02 07:38:00,42.5,41.4,29.99,NE,46,0.0,4.0,96,0.00,,---,0.17,VWS V13.01,2013-01-02 12:38:00,
2013-01-02 07:41:00,42.5,41.4,29.99,NE,45,0.0,5.0,96,0.00,,---,0.17,VWS V13.01,2013-01-02 12:41:00,
2013-01-02 07:42:00,42.4,41.3,29.99,NE,45,0.0,5.0,96,0.00,,---,0.17,VWS V13.01,2013-01-02 12:42:00,
2013-01-02 07:43:00,42.4,41.3,29.99,NE,45,0.0,5.0,96,0.00,,---,0.17,VWS V13.01,2013-01-02 12:43:00,
2013-01-02 07:46:00,42.4,41.3,30.00,NE,46,0.0,5.0,96,0.00,,---,0.17,VWS V13.01,2013-01-02 12:46:00,
2013-01-02 07:47:00,42.4,41.3,30.00,NE,45,0.0,5.0,96,0.00,,---,0.17,VWS V13.01,2013-01-02 12:47:00,
2013-01-02 07:48:00,42.4,41.3,30.00,NE,46,0.0,5.0,96,0.00,,---,0.17,VWS V13.01,2013-01-02 12:48:00,
2013-01-02 07:52:00,42.3,41.2,30.00,NE,45,0.0,5.0,96,0.00,,---,0.17,VWS V13.01,2013-01-02 12:52:00,
2013-01-02 07:53:00,42.3,41.2,30.01,NE,45,0.0,5.0,96,0.00,,---,0.17,VWS V13.01,2013-01-02 12:53:00,
2013-01-02 07:57:00,42.3,41.2,30.00,NE,45,0.0,5.0,96,0.00,,---,0.17,VWS V13.01,2013-01-02 12:57:00,
2013-01-02 07:58:00,42.3,41.2,30.00,NE,45,0.0,5.0,96,0.00,,---,0.17,VWS V13.01,2013-01-02 12:58:00,
2013-01-02 08:02:00,42.2,41.1,30.00,NE,46,0.0,2.0,96,0.00,,---,0.17,VWS V13.01,2013-01-02 13:02:00,
2013-01-02 08:03:00,42.2,41.1,30.00,NE,45,1.0,4.0,96,0.00,,---,0.17,VWS V13.01,2013-01-02 13:03:00,
2013-01-02 08:04:00,42.2,41.1,30.01,NE,46,3.0,4.0,96,0.00,,---,0.17,VWS V13.01,2013-01-02 13:04:00,
2013-01-02 08:07:00,42.2,41.1,30.01,NE,38,0.0,5.0,96,0.00,,---,0.17,VWS V13.01,2013-01-02 13:07:00,
2013-01-02 08:08:00,42.1,41.0,30.01,NE,38,0.0,5.0,96,0.00,,---,0.17,VWS V13.01,2013-01-02 13:08:00,
2013-01-02 08:09:00,42.1,41.0,30.01,NE,38,0.0,5.0,96,0.00,,---,0.17,VWS V13.01,2013-01-02 13:09:00,
2013-01-02 08:12:00,42.1,41.0,30.01,NNE,32,1.0,7.0,96,0.00,,---,0.17,VWS V13.01,2013-01-02 13:12:00,
2013-01-02 08:13:00,42.1,41.0,30.01,NNE,32,2.0,7.0,96,0.00,,---,0.17,VWS V13.01,2013-01-02 13:13:00,
2013-01-02 08:14:00,42.1,41.0,30.01,NNE,32,0.0,7.0,96,0.00,,---,0.17,VWS V13.01,2013-01-02 13:14:00,
2013-01-02 08:17:00,42.1,41.0,30.01,NNE,30,0.0,7.0,96,0.00,,---,0.17,VWS V13.01,2013-01-02 13:17:00,
2013-01-02 08:18:00,42.1,41.0,30.01,NNE,27,2.0,7.0,96,0.00,,---,0.17,VWS V13.01,2013-01-02 13:18:00,
2013-01-02 08:19:00,42.1,41.0,30.01,NNE,27,0.0,7.0,96,0.00,,---,0.17,VWS V13.01,2013-01-02 13:19:00,
2013-01-02 08:22:00,42.0,40.9,30.01,NNE,32,0.0,7.0,96,0.00,,---,0.17,VWS V13.01,2013-01-02 13:22:00,
2013-01-02 08:23:00,42.0,40.9,30.01,NNE,32,0.0,7.0,96,0.00,,---,0.17,VWS V13.01,2013-01-02 13:23:00,
2013-01-02 08:24:00,42.0,40.9,30.01,NNE,32,0.0,7.0,96,0.00,,---,0.17,VWS V13.01,2013-01-02 13:24:00,
2013-01-02 08:27:00,42.0,40.9,30.01,NE,34,1.0,7.0,96,0.00,,---,0.17,VWS V13.01,2013-01-02 13:27:00,
2013-01-02 08:28:00,42.0,40.9,30.01,NE,34,0.0,7.0,96,0.00,,---,0.17,VWS V13.01,2013-01-02 13:28:00,
2013-01-02 08:29:00,42.0,40.9,30.01,NE,35,1.0,7.0,96,0.00,,---,0.17,VWS V13.01,2013-01-02 13:29:00,
2013-01-02 08:32:00,42.0,40.9,30.02,North,5,4.0,7.0,96,0.00,,---,0.17,VWS V13.01,2013-01-02 13:32:00,
2013-01-02 08:33:00,42.0,40.9,30.02,North,9,1.0,7.0,96,0.00,,---,0.17,VWS V13.01,2013-01-02 13:33:00,
2013-01-02 08:34:00,42.0,40.9,30.02,North,9,0.0,7.0,96,0.00,,---,0.17,VWS V13.01,2013-01-02 13:34:00,
2013-01-02 08:37:00,42.0,40.9,30.02,NNE,20,0.0,7.0,96,0.00,,---,0.17,VWS V13.01,2013-01-02 13:37:00,
2013-01-02 08:38:00,42.0,40.9,30.02,NNE,30,0.0,7.0,96,0.00,,---,0.17,VWS V13.01,2013-01-02 13:38:00,
2013-01-02 08:39:00,42.0,40.9,30.02,NNE,30,0.0,7.0,96,0.00,,---,0.17,VWS V13.01,2013-01-02 13:39:00,
2013-01-02 08:42:00,42.0,40.9,30.03,NE,35,0.0,7.0,96,0.00,,---,0.17,VWS V13.01,2013-01-02 13:42:00,
2013-01-02 08:43:00,42.0,40.9,30.03,NNE,33,4.0,7.0,96,0.00,,---,0.17,VWS V13.01,2013-01-02 13:43:00,
2013-01-02 08:44:00,42.0,40.9,30.03,NNE,33,0.0,7.0,96,0.00,,---,0.17,VWS V13.01,2013-01-02 13:44:00,
2013-01-02 08:47:00,42.0,40.9,30.03,NE,36,1.0,7.0,96,0.00,,---,0.17,VWS V13.01,2013-01-02 13:47:00,
2013-01-02 08:48:00,42.0,40.9,30.03,NE,46,5.0,9.0,96,0.00,,---,0.17,VWS V13.01,2013-01-02 13:48:00,
2013-01-02 08:49:00,42.0,40.9,30.03,NE,45,0.0,9.0,96,0.00,,---,0.17,VWS V13.01,2013-01-02 13:49:00,
2013-01-02 08:52:00,42.0,40.9,30.03,NE,40,4.0,9.0,96,0.00,,---,0.17,VWS V13.01,2013-01-02 13:52:00,
2013-01-02 08:53:00,42.0,40.9,30.03,NNE,21,4.0,9.0,96,0.00,,---,0.17,VWS V13.01,2013-01-02 13:53:00,
2013-01-02 08:54:00,42.0,40.9,30.03,NNE,14,4.0,9.0,96,0.00,,---,0.17,VWS V13.01,2013-01-02 13:54:00,
2013-01-02 08:55:00,42.0,40.9,30.03,NNE,14,0.0,9.0,96,0.00,,---,0.17,VWS V13.01,2013-01-02 13:55:00,
2013-01-02 08:57:00,42.0,40.9,30.03,North,360,0.0,9.0,96,0.00,,---,0.17,VWS V13.01,2013-01-02 13:57:00,
2013-01-02 08:58:00,42.0,40.9,30.04,North,360,0.0,9.0,96,0.00,,---,0.17,VWS V13.01,2013-01-02 13:58:00,
2013-01-02 08:59:00,42.0,40.9,30.04,North,360,0.0,9.0,96,0.00,,---,0.17,VWS V13.01,2013-01-02 13:59:00,
2013-01-02 09:00:00,42.0,40.9,30.04,North,5,3.0,9.0,96,0.00,,---,0.17,VWS V13.01,2013-01-02 14:00:00,
2013-01-02 09:02:00,42.0,40.9,30.04,North,9,1.0,6.0,96,0.00,,---,0.17,VWS V13.01,2013-01-02 14:02:00,
2013-01-02 09:04:00,42.0,40.9,30.04,NNE,25,2.0,10.0,96,0.00,,---,0.17,VWS V13.01,2013-01-02 14:04:00,
2013-01-02 09:05:00,42.0,40.9,30.04,North,9,0.0,10.0,96,0.00,,---,0.17,VWS V13.01,2013-01-02 14:05:00,
2013-01-02 09:08:00,42.0,40.9,30.04,North,10,3.0,10.0,96,0.00,,---,0.17,VWS V13.01,2013-01-02 14:08:00,
2013-01-02 09:09:00,42.0,40.9,30.05,NNE,21,4.0,10.0,96,0.00,,---,0.17,VWS V13.01,2013-01-02 14:09:00,
2013-01-02 09:10:00,42.0,40.9,30.04,NNE,15,0.0,10.0,96,0.00,,---,0.17,VWS V13.01,2013-01-02 14:10:00,
2013-01-02 09:13:00,42.0,40.9,30.04,NE,44,4.0,10.0,96,0.00,,---,0.17,VWS V13.01,2013-01-02 14:13:00,
2013-01-02 09:14:00,42.1,41.0,30.04,NNE,13,4.0,10.0,96,0.00,,---,0.17,VWS V13.01,2013-01-02 14:14:00,
2013-01-02 09:15:00,42.1,41.0,30.05,NE,46,4.0,13.0,96,0.00,,---,0.17,VWS V13.01,2013-01-02 14:15:00,
2013-01-02 09:18:00,42.2,41.1,30.05,NE,38,0.0,13.0,96,0.00,,---,0.17,VWS V13.01,2013-01-02 14:18:00,
2013-01-02 09:19:00,42.2,41.1,30.05,NE,55,9.0,13.0,96,0.00,,---,0.17,VWS V13.01,2013-01-02 14:19:00,
2013-01-02 09:20:00,42.2,41.1,30.05,NNW,341,6.0,13.0,96,0.00,,---,0.17,VWS V13.01,2013-01-02 14:20:00,
2013-01-02 09:23:00,42.3,41.2,30.06,NNW,347,0.0,13.0,96,0.00,,---,0.17,VWS V13.01,2013-01-02 14:23:00,
2013-01-02 09:24:00,42.3,41.2,30.05,NE,37,5.0,13.0,96,0.00,,---,0.17,VWS V13.01,2013-01-02 14:24:00,
2013-01-02 09:25:00,42.3,41.2,30.05,NE,36,0.0,14.0,96,0.00,,---,0.17,VWS V13.01,2013-01-02 14:25:00,
2013-01-02 09:28:00,42.2,41.1,30.05,NE,42,4.0,14.0,96,0.00,,---,0.17,VWS V13.01,2013-01-02 14:28:00,
2013-01-02 09:30:00,42.1,41.0,30.05,NE,34,3.0,14.0,96,0.00,,---,0.17,VWS V13.01,2013-01-02 14:30:00,
2013-01-02 09:33:00,41.9,40.8,30.05,NNE,33,2.0,11.0,96,0.00,,---,0.17,VWS V13.01,2013-01-02 14:33:00,
2013-01-02 09:35:00,41.9,40.6,30.06,NE,42,0.0,11.0,95,0.00,,---,0.17,VWS V13.01,2013-01-02 14:35:00,
2013-01-02 09:38:00,41.8,40.5,30.06,NNW,344,4.0,13.0,95,0.00,,---,0.17,VWS V13.01,2013-01-02 14:38:00,
2013-01-02 09:40:00,41.7,40.4,30.06,NE,47,5.0,13.0,95,0.00,,---,0.17,VWS V13.01,2013-01-02 14:40:00,
2013-01-02 09:43:00,41.8,40.5,30.06,ENE,57,5.0,13.0,95,0.00,,---,0.17,VWS V13.01,2013-01-02 14:43:00,
2013-01-02 09:45:00,41.9,40.6,30.06,NNE,22,6.0,13.0,95,0.00,,---,0.17,VWS V13.01,2013-01-02 14:45:00,
2013-01-02 09:48:00,42.2,40.9,30.06,North,10,1.0,13.0,95,0.00,,---,0.17,VWS V13.01,2013-01-02 14:48:00,
2013-01-02 09:50:00,42.3,41.0,30.06,NNE,14,3.0,13.0,95,0.00,,---,0.17,VWS V13.01,2013-01-02 14:50:00,
2013-01-02 09:53:00,42.4,40.8,30.06,NE,48,0.0,13.0,94,0.00,,---,0.17,VWS V13.01,2013-01-02 14:53:00,
2013-01-02 09:55:00,42.4,40.8,30.06,NE,53,0.0,13.0,94,0.00,,---,0.17,VWS V13.01,2013-01-02 14:55:00,
2013-01-02 09:56:00,42.5,40.9,30.06,NE,46,4.0,13.0,94,0.00,,---,0.17,VWS V13.01,2013-01-02 14:56:00,
2013-01-02 09:58:00,42.5,40.6,30.06,NE,55,7.0,14.0,93,0.00,,---,0.17,VWS V13.01,2013-01-02 14:58:00,
2013-01-02 10:00:00,42.5,40.6,30.07,NNE,25,2.0,14.0,93,0.00,,---,0.17,VWS V13.01,2013-01-02 15:00:00,
2013-01-02 10:01:00,42.6,40.4,30.07,NNE,25,0.0,14.0,92,0.00,,---,0.17,VWS V13.01,2013-01-02 15:01:00,
2013-01-02 10:03:00,42.6,40.4,30.06,NNE,25,0.0,7.0,92,0.00,,---,0.17,VWS V13.01,2013-01-02 15:03:00,
2013-01-02 10:05:00,42.7,40.5,30.06,NNW,329,0.0,7.0,92,0.00,,---,0.17,VWS V13.01,2013-01-02 15:05:00,
2013-01-02 10:06:00,42.7,40.5,30.07,ENE,69,1.0,7.0,92,0.00,,---,0.17,VWS V13.01,2013-01-02 15:06:00,
2013-01-02 10:08:00,42.8,40.4,30.07,NNW,348,1.0,7.0,91,0.00,,---,0.17,VWS V13.01,2013-01-02 15:08:00,
2013-01-02 10:10:00,42.8,40.4,30.07,ENE,74,4.0,7.0,91,0.00,,---,0.17,VWS V13.01,2013-01-02 15:10:00,
2013-01-02 10:11:00,42.8,40.4,30.07,NE,55,0.0,7.0,91,0.00,,---,0.17,VWS V13.01,2013-01-02 15:11:00,
2013-01-02 10:14:00,42.9,40.2,30.06,East,86,0.0,7.0,90,0.00,,---,0.17,VWS V13.01,2013-01-02 15:14:00,
2013-01-02 10:15:00,43.0,40.3,30.06,East,86,0.0,7.0,90,0.00,,---,0.17,VWS V13.01,2013-01-02 15:15:00,
2013-01-02 10:16:00,43.1,40.4,30.06,ENE,62,3.0,7.0,90,0.00,,---,0.17,VWS V13.01,2013-01-02 15:16:00,
2013-01-02 10:19:00,43.1,40.1,30.07,NE,46,0.0,7.0,89,0.00,,---,0.17,VWS V13.01,2013-01-02 15:19:00,
2013-01-02 10:20:00,43.1,40.1,30.07,NE,41,3.0,7.0,89,0.00,,---,0.17,VWS V13.01,2013-01-02 15:20:00,
2013-01-02 10:21:00,43.2,40.2,30.07,NE,41,4.0,7.0,89,0.00,,---,0.17,VWS V13.01,2013-01-02 15:21:00,
2013-01-02 10:24:00,43.2,39.9,30.07,ENE,57,1.0,7.0,88,0.00,,---,0.17,VWS V13.01,2013-01-02 15:24:00,
2013-01-02 10:26:00,43.3,40.0,30.07,NE,55,1.0,7.0,88,0.00,,---,0.17,VWS V13.01,2013-01-02 15:26:00,
2013-01-02 10:30:00,43.5,39.6,30.06,NE,41,3.0,7.0,86,0.00,,---,0.17,VWS V13.01,2013-01-02 15:30:00,
2013-01-02 10:31:00,43.5,39.6,30.06,NNE,28,0.0,0.0,86,0.00,,---,0.17,VWS V13.01,2013-01-02 15:31:00,
2013-01-02 10:32:00,43.5,39.6,30.06,NNE,29,0.0,0.0,86,0.00,,---,0.17,VWS V13.01,2013-01-02 15:32:00,
2013-01-02 10:35:00,43.6,39.4,30.07,North,355,1.0,7.0,85,0.00,,---,0.17,VWS V13.01,2013-01-02 15:35:00,
2013-01-02 10:36:00,43.6,39.4,30.07,NNW,333,9.0,11.0,85,0.00,,---,0.17,VWS V13.01,2013-01-02 15:36:00,
2013-01-02 10:37:00,43.7,39.2,30.07,NE,38,4.0,11.0,84,0.00,,---,0.17,VWS V13.01,2013-01-02 15:37:00,
2013-01-02 10:40:00,43.8,39.0,30.07,NNE,33,6.0,11.0,83,0.00,,---,0.17,VWS V13.01,2013-01-02 15:40:00,
2013-01-02 10:41:00,43.8,39.0,30.08,NNE,33,4.0,11.0,83,0.00,,---,0.17,VWS V13.01,2013-01-02 15:41:00,
2013-01-02 10:42:00,43.8,39.0,30.08,NNE,32,0.0,11.0,83,0.00,,---,0.17,VWS V13.01,2013-01-02 15:42:00,
2013-01-02 10:45:00,44.0,39.2,30.08,NNE,32,0.0,11.0,83,0.00,,---,0.17,VWS V13.01,2013-01-02 15:45:00,
2013-01-02 10:46:00,44.0,39.2,30.08,NNE,24,4.0,11.0,83,0.00,,---,0.17,VWS V13.01,2013-01-02 15:46:00,
2013-01-02 10:47:00,44.0,39.2,30.08,NE,44,6.0,11.0,83,0.00,,---,0.17,VWS V13.01,2013-01-02 15:47:00,
2013-01-02 10:50:00,44.2,39.4,30.07,NNW,345,1.0,11.0,83,0.00,,---,0.17,VWS V13.01,2013-01-02 15:50:00,
2013-01-02 10:51:00,44.2,39.1,30.07,NNW,348,2.0,11.0,82,0.00,,---,0.17,VWS V13.01,2013-01-02 15:51:00,
2013-01-02 10:52:00,44.3,39.2,30.07,NNE,28,4.0,12.0,82,0.00,,---,0.17,VWS V13.01,2013-01-02 15:52:00,
2013-01-02 10:55:00,44.4,38.9,30.07,NE,40,2.0,12.0,81,0.00,,---,0.17,VWS V13.01,2013-01-02 15:55:00,
2013-01-02 10:56:00,44.5,39.0,30.06,NNE,31,1.0,12.0,81,0.00,,---,0.17,VWS V13.01,2013-01-02 15:56:00,
2013-01-02 10:57:00,44.5,39.0,30.06,NE,49,5.0,12.0,81,0.00,,---,0.17,VWS V13.01,2013-01-02 15:57:00,
2013-01-02 11:00:00,44.6,38.8,30.06,North,350,0.0,12.0,80,0.00,,---,0.17,VWS V13.01,2013-01-02 16:00:00,
2013-01-02 11:01:00,44.6,38.8,30.06,North,355,0.0,2.0,80,0.00,,---,0.17,VWS V13.01,2013-01-02 16:01:00,
2013-01-02 11:02:00,44.6,38.5,30.06,NNE,17,0.0,6.0,79,0.00,,---,0.17,VWS V13.01,2013-01-02 16:02:00,
2013-01-02 11:06:00,44.7,38.6,30.08,NE,45,2.0,6.0,79,0.00,,---,0.17,VWS V13.01,2013-01-02 16:06:00,
2013-01-02 11:07:00,44.7,38.3,30.08,NE,44,1.0,6.0,78,0.00,,---,0.17,VWS V13.01,2013-01-02 16:07:00,
2013-01-02 11:11:00,44.7,38.3,30.08,NNW,328,3.0,6.0,78,0.00,,---,0.17,VWS V13.01,2013-01-02 16:11:00,
2013-01-02 11:12:00,44.7,38.3,30.08,NNE,21,4.0,9.0,78,0.00,,---,0.17,VWS V13.01,2013-01-02 16:12:00,
2013-01-02 11:16:00,44.7,37.9,30.08,North,355,10.0,12.0,77,0.00,,---,0.17,VWS V13.01,2013-01-02 16:16:00,
2013-01-02 11:17:00,44.7,37.6,30.07,North,355,0.0,12.0,76,0.00,,---,0.17,VWS V13.01,2013-01-02 16:17:00,
2013-01-02 11:21:00,44.8,37.7,30.07,NNW,342,5.0,12.0,76,0.00,,---,0.17,VWS V13.01,2013-01-02 16:21:00,
2013-01-02 11:22:00,44.8,37.7,30.07,North,349,7.0,12.0,76,0.00,,---,0.17,VWS V13.01,2013-01-02 16:22:00,
2013-01-02 11:26:00,44.9,37.8,30.06,North,355,0.0,12.0,76,0.00,,---,0.17,VWS V13.01,2013-01-02 16:26:00,
2013-01-02 11:27:00,45.0,38.2,30.06,North,355,1.0,12.0,77,0.00,,---,0.17,VWS V13.01,2013-01-02 16:27:00,
2013-01-02 11:28:00,45.0,38.2,30.06,NE,51,6.0,12.0,77,0.00,,---,0.17,VWS V13.01,2013-01-02 16:28:00,
2013-01-02 11:31:00,45.1,38.0,30.06,North,360,3.0,7.0,76,0.00,,---,0.17,VWS V13.01,2013-01-02 16:31:00,
2013-01-02 11:32:00,45.1,37.7,30.06,North,360,0.0,7.0,75,0.00,,---,0.17,VWS V13.01,2013-01-02 16:32:00,
2013-01-02 11:33:00,45.1,37.7,30.06,North,5,4.0,7.0,75,0.00,,---,0.17,VWS V13.01,2013-01-02 16:33:00,
2013-01-02 11:36:00,45.2,37.8,30.05,North,355,1.0,9.0,75,0.00,,---,0.17,VWS V13.01,2013-01-02 16:36:00,
2013-01-02 11:37:00,45.3,37.9,30.05,NNW,347,0.0,9.0,75,0.00,,---,0.17,VWS V13.01,2013-01-02 16:37:00,
2013-01-02 11:38:00,45.3,37.9,30.05,NNW,346,4.0,9.0,75,0.00,,---,0.17,VWS V13.01,2013-01-02 16:38:00,
2013-01-02 11:41:00,45.4,38.0,30.06,North,355,2.0,9.0,75,0.00,,---,0.17,VWS V13.01,2013-01-02 16:41:00,
2013-01-02 11:42:00,45.4,38.0,30.06,North,355,2.0,9.0,75,0.00,,---,0.17,VWS V13.01,2013-01-02 16:42:00,
2013-01-02 11:43:00,45.4,38.0,30.06,North,355,2.0,9.0,75,0.00,,---,0.17,VWS V13.01,2013-01-02 16:43:00,
2013-01-02 11:44:00,45.4,37.6,30.06,North,355,3.0,9.0,74,0.00,,---,0.17,VWS V13.01,2013-01-02 16:44:00,
2013-01-02 11:46:00,45.4,37.6,30.06,North,360,5.0,9.0,74,0.00,,---,0.17,VWS V13.01,2013-01-02 16:46:00,
2013-01-02 11:47:00,45.4,37.6,30.05,North,360,3.0,9.0,74,0.00,,---,0.17,VWS V13.01,2013-01-02 16:47:00,
2013-01-02 11:49:00,45.3,37.2,30.06,North,360,0.0,9.0,73,0.00,,---,0.17,VWS V13.01,2013-01-02 16:49:00,
2013-01-02 11:52:00,45.3,37.2,30.06,NNE,25,0.0,9.0,73,0.00,,---,0.17,VWS V13.01,2013-01-02 16:52:00,
2013-01-02 11:53:00,45.3,37.2,30.06,NNE,16,3.0,9.0,73,0.00,,---,0.17,VWS V13.01,2013-01-02 16:53:00,
2013-01-02 11:54:00,45.3,37.2,30.06,North,349,3.0,9.0,73,0.00,,---,0.17,VWS V13.01,2013-01-02 16:54:00,
2013-01-02 11:57:00,45.3,37.5,30.06,NNW,344,2.0,9.0,74,0.00,,---,0.17,VWS V13.01,2013-01-02 16:57:00,
2013-01-02 11:58:00,45.4,37.6,30.05,NNW,346,8.0,9.0,74,0.00,,---,0.17,VWS V13.01,2013-01-02 16:58:00,
2013-01-02 11:59:00,45.5,37.7,30.05,NNW,346,2.0,9.0,74,0.00,,---,0.17,VWS V13.01,2013-01-02 16:59:00,
2013-01-02 12:02:00,45.6,37.5,30.05,NE,38,5.0,10.0,73,0.00,,---,0.17,VWS V13.01,2013-01-02 17:02:00,
2013-01-02 12:03:00,45.7,37.5,30.05,NE,38,1.0,10.0,73,0.00,,---,0.17,VWS V13.01,2013-01-02 17:03:00,
2013-01-02 12:04:00,45.9,38.1,30.05,NE,37,1.0,10.0,74,0.00,,---,0.17,VWS V13.01,2013-01-02 17:04:00,
2013-01-02 12:07:00,46.1,37.9,30.05,North,349,7.0,10.0,73,0.00,,---,0.17,VWS V13.01,2013-01-02 17:07:00,
2013-01-02 12:08:00,46.1,37.6,30.05,NNW,335,7.0,10.0,72,0.00,,---,0.17,VWS V13.01,2013-01-02 17:08:00,
2013-01-02 12:09:00,46.3,37.4,30.05,NNW,339,1.0,10.0,71,0.00,,---,0.17,VWS V13.01,2013-01-02 17:09:00,
2013-01-02 12:12:00,46.6,37.7,30.05,NNE,19,4.0,12.0,71,0.00,,---,0.17,VWS V13.01,2013-01-02 17:12:00,
2013-01-02 12:13:00,46.7,37.8,30.05,NE,36,2.0,12.0,71,0.00,,---,0.17,VWS V13.01,2013-01-02 17:13:00,
2013-01-02 12:14:00,46.9,37.6,30.05,North,10,11.0,17.0,70,0.00,,---,0.17,VWS V13.01,2013-01-02 17:14:00,
2013-01-02 12:17:00,47.1,37.5,30.04,NE,45,4.0,17.0,69,0.00,,---,0.17,VWS V13.01,2013-01-02 17:17:00,
2013-01-02 12:18:00,47.2,37.6,30.04,NE,39,0.0,17.0,69,0.00,,---,0.17,VWS V13.01,2013-01-02 17:18:00,
2013-01-02 12:19:00,47.3,37.7,30.04,NW,319,2.0,17.0,69,0.00,,---,0.17,VWS V13.01,2013-01-02 17:19:00,
2013-01-02 12:22:00,47.5,38.2,30.04,North,11,0.0,17.0,70,0.00,,---,0.17,VWS V13.01,2013-01-02 17:22:00,
2013-01-02 12:23:00,47.7,38.4,30.03,North,349,5.0,17.0,70,0.00,,---,0.17,VWS V13.01,2013-01-02 17:23:00,
2013-01-02 12:25:00,47.8,38.1,30.04,North,360,5.0,17.0,69,0.00,,---,0.17,VWS V13.01,2013-01-02 17:25:00,
2013-01-02 12:27:00,48.1,38.0,30.03,North,355,3.0,17.0,68,0.00,,---,0.17,VWS V13.01,2013-01-02 17:27:00,
2013-01-02 12:28:00,48.2,39.6,30.03,NNE,22,6.0,17.0,72,0.00,,---,0.17,VWS V13.01,2013-01-02 17:28:00,
2013-01-02 12:30:00,48.4,38.3,30.03,North,349,5.0,17.0,68,0.00,,---,0.17,VWS V13.01,2013-01-02 17:30:00,
2013-01-02 12:32:00,48.5,38.4,30.03,NNW,331,1.0,7.0,68,0.00,,---,0.17,VWS V13.01,2013-01-02 17:32:00,
2013-01-02 12:33:00,48.6,38.5,30.02,NNE,24,12.0,12.0,68,0.00,,---,0.17,VWS V13.01,2013-01-02 17:33:00,
2013-01-02 12:35:00,48.6,38.2,30.02,ENE,60,7.0,12.0,67,0.00,,---,0.17,VWS V13.01,2013-01-02 17:35:00,
2013-01-02 12:37:00,48.6,37.8,30.03,NE,38,3.0,12.0,66,0.00,,---,0.17,VWS V13.01,2013-01-02 17:37:00,
2013-01-02 12:38:00,48.6,37.8,30.03,North,10,5.0,12.0,66,0.00,,---,0.17,VWS V13.01,2013-01-02 17:38:00,
2013-01-02 12:40:00,48.5,37.7,30.03,North,351,5.0,12.0,66,0.00,,---,0.17,VWS V13.01,2013-01-02 17:40:00,
2013-01-02 12:42:00,48.5,37.7,30.03,North,360,0.0,12.0,66,0.00,,---,0.17,VWS V13.01,2013-01-02 17:42:00,
2013-01-02 12:43:00,48.5,37.7,30.03,North,355,7.0,12.0,66,0.00,,---,0.17,VWS V13.01,2013-01-02 17:43:00,
2013-01-02 12:45:00,48.4,37.2,30.03,North,9,0.0,12.0,65,0.00,,---,0.17,VWS V13.01,2013-01-02 17:45:00,
2013-01-02 12:47:00,48.3,37.5,30.03,NNE,14,0.0,12.0,66,0.00,,---,0.17,VWS V13.01,2013-01-02 17:47:00,
2013-01-02 12:49:00,48.3,37.5,30.02,North,360,2.0,12.0,66,0.00,,---,0.17,VWS V13.01,2013-01-02 17:49:00,
2013-01-02 12:51:00,48.2,37.4,30.02,NNW,346,0.0,12.0,66,0.00,,---,0.17,VWS V13.01,2013-01-02 17:51:00,
2013-01-02 12:52:00,48.2,37.8,30.02,NNW,346,1.0,12.0,67,0.00,,---,0.17,VWS V13.01,2013-01-02 17:52:00,
2013-01-02 12:54:00,48.2,37.8,30.01,NNE,33,2.0,12.0,67,0.00,,---,0.17,VWS V13.01,2013-01-02 17:54:00,
2013-01-02 12:56:00,48.1,37.7,30.01,NE,55,0.0,12.0,67,0.00,,---,0.17,VWS V13.01,2013-01-02 17:56:00,
2013-01-02 12:57:00,48.1,37.7,30.02,NE,49,2.0,12.0,67,0.00,,---,0.17,VWS V13.01,2013-01-02 17:57:00,
2013-01-02 12:59:00,48.1,37.7,30.02,NNW,337,3.0,12.0,67,0.00,,---,0.17,VWS V13.01,2013-01-02 17:59:00,
2013-01-02 13:01:00,48.1,37.7,30.02,NW,325,4.0,5.0,67,0.00,,---,0.17,VWS V13.01,2013-01-02 18:01:00,
2013-01-02 13:02:00,48.0,37.6,30.02,North,360,4.0,7.0,67,0.00,,---,0.17,VWS V13.01,2013-01-02 18:02:00,
2013-01-02 13:04:00,48.1,37.7,30.02,North,355,1.0,7.0,67,0.00,,---,0.17,VWS V13.01,2013-01-02 18:04:00,
2013-01-02 13:06:00,48.0,37.6,30.02,NNW,328,6.0,7.0,67,0.00,,---,0.17,VWS V13.01,2013-01-02 18:06:00,
2013-01-02 13:08:00,48.0,37.6,30.02,NNW,334,4.0,7.0,67,0.00,,---,0.17,VWS V13.01,2013-01-02 18:08:00,
2013-01-02 13:09:00,48.0,37.6,30.03,NNW,336,2.0,7.0,67,0.00,,---,0.17,VWS V13.01,2013-01-02 18:09:00,
2013-01-02 13:11:00,48.0,37.6,30.02,NNW,348,4.0,9.0,67,0.00,,---,0.17,VWS V13.01,2013-01-02 18:11:00,
2013-01-02 13:13:00,48.0,37.6,30.02,NNW,348,5.0,9.0,67,0.00,,---,0.17,VWS V13.01,2013-01-02 18:13:00,
2013-01-02 13:14:00,48.0,37.6,30.01,NNW,348,0.0,9.0,67,0.00,,---,0.17,VWS V13.01,2013-01-02 18:14:00,
2013-01-02 13:16:00,47.9,37.5,30.01,NE,48,2.0,9.0,67,0.00,,---,0.17,VWS V13.01,2013-01-02 18:16:00,
2013-01-02 13:18:00,47.9,37.5,30.01,NE,49,6.0,9.0,67,0.00,,---,0.17,VWS V13.01,2013-01-02 18:18:00,
2013-01-02 13:19:00,47.8,37.0,30.01,ENE,63,2.0,9.0,66,0.00,,---,0.17,VWS V13.01,2013-01-02 18:19:00,
2013-01-02 13:21:00,47.8,37.4,30.02,ENE,64,0.0,9.0,67,0.00,,---,0.17,VWS V13.01,2013-01-02 18:21:00,
2013-01-02 13:23:00,47.7,37.7,30.02,ENE,65,0.0,9.0,68,0.00,,---,0.17,VWS V13.01,2013-01-02 18:23:00,
2013-01-02 13:24:00,47.7,37.7,30.02,ENE,64,1.0,9.0,68,0.00,,---,0.17,VWS V13.01,2013-01-02 18:24:00,
2013-01-02 13:26:00,47.7,37.7,30.03,ENE,65,0.0,9.0,68,0.00,,---,0.17,VWS V13.01,2013-01-02 18:26:00,
2013-01-02 13:28:00,47.7,37.7,30.03,NE,52,3.0,9.0,68,0.00,,---,0.17,VWS V13.01,2013-01-02 18:28:00,
2013-01-02 13:29:00,47.7,37.7,30.03,NE,46,2.0,9.0,68,0.00,,---,0.17,VWS V13.01,2013-01-02 18:29:00,
2013-01-02 13:31:00,47.6,37.6,30.03,NE,45,0.0,0.0,68,0.00,,---,0.17,VWS V13.01,2013-01-02 18:31:00,
2013-01-02 13:33:00,47.7,37.7,30.03,NE,40,1.0,4.0,68,0.00,,---,0.17,VWS V13.01,2013-01-02 18:33:00,
2013-01-02 13:34:00,47.7,37.7,30.03,NE,37,0.0,4.0,68,0.00,,---,0.17,VWS V13.01,2013-01-02 18:34:00,
2013-01-02 13:36:00,47.7,38.0,30.02,NNE,23,1.0,5.0,69,0.00,,---,0.17,VWS V13.01,2013-01-02 18:36:00,
2013-01-02 13:38:00,47.8,38.1,30.02,NE,50,0.0,6.0,69,0.00,,---,0.17,VWS V13.01,2013-01-02 18:38:00,
2013-01-02 13:39:00,47.8,37.8,30.03,NE,36,1.0,6.0,68,0.00,,---,0.17,VWS V13.01,2013-01-02 18:39:00,
2013-01-02 13:41:00,47.8,37.8,30.03,NNE,22,2.0,6.0,68,0.00,,---,0.17,VWS V13.01,2013-01-02 18:41:00,
2013-01-02 13:43:00,47.8,37.8,30.03,NNE,25,0.0,6.0,68,0.00,,---,0.17,VWS V13.01,2013-01-02 18:43:00,
2013-01-02 13:45:00,47.8,37.4,30.02,NNE,25,0.0,6.0,67,0.00,,---,0.17,VWS V13.01,2013-01-02 18:45:00,
2013-01-02 13:46:00,47.8,37.4,30.02,NNE,25,1.0,6.0,67,0.00,,---,0.17,VWS V13.01,2013-01-02 18:46:00,
2013-01-02 13:48:00,47.8,37.4,30.02,NNE,25,0.0,6.0,67,0.00,,---,0.17,VWS V13.01,2013-01-02 18:48:00,
2013-01-02 13:50:00,47.8,37.4,30.02,NNE,25,0.0,6.0,67,0.00,,---,0.17,VWS V13.01,2013-01-02 18:50:00,
2013-01-02 13:51:00,47.7,37.3,30.03,NNE,26,2.0,6.0,67,0.00,,---,0.17,VWS V13.01,2013-01-02 18:51:00,
2013-01-02 13:53:00,47.7,37.7,30.03,NNE,26,0.0,6.0,68,0.00,,---,0.17,VWS V13.01,2013-01-02 18:53:00,
2013-01-02 13:55:00,47.7,37.7,30.03,North,350,2.0,6.0,68,0.00,,---,0.17,VWS V13.01,2013-01-02 18:55:00,
2013-01-02 13:57:00,47.7,37.7,30.02,NNE,13,4.0,6.0,68,0.00,,---,0.17,VWS V13.01,2013-01-02 18:57:00,
2013-01-02 13:58:00,47.7,37.7,30.02,NNE,30,2.0,6.0,68,0.00,,---,0.17,VWS V13.01,2013-01-02 18:58:00,
2013-01-02 14:00:00,47.7,37.7,30.01,NNE,31,0.0,6.0,68,0.00,,---,0.17,VWS V13.01,2013-01-02 19:00:00,
2013-01-02 14:02:00,47.7,37.3,30.01,NNE,30,0.0,2.0,67,0.00,,---,0.17,VWS V13.01,2013-01-02 19:02:00,
2013-01-02 14:03:00,47.7,37.3,30.01,NNE,31,1.0,3.0,67,0.00,,---,0.17,VWS V13.01,2013-01-02 19:03:00,
2013-01-02 14:04:00,47.7,37.7,30.01,NNE,31,1.0,3.0,68,0.00,,---,0.17,VWS V13.01,2013-01-02 19:04:00,
2013-01-02 14:05:00,47.7,37.3,30.01,NNE,28,2.0,4.0,67,0.00,,---,0.17,VWS V13.01,2013-01-02 19:05:00,
2013-01-02 14:07:00,47.7,37.7,30.02,NNE,28,3.0,4.0,68,0.00,,---,0.17,VWS V13.01,2013-01-02 19:07:00,
2013-01-02 14:08:00,47.7,37.7,30.02,NNE,27,0.0,4.0,68,0.00,,---,0.17,VWS V13.01,2013-01-02 19:08:00,
2013-01-02 14:09:00,47.7,37.7,30.02,NNE,27,0.0,4.0,68,0.00,,---,0.17,VWS V13.01,2013-01-02 19:09:00,
2013-01-02 14:10:00,47.7,37.7,30.02,NNE,27,0.0,6.0,68,0.00,,---,0.17,VWS V13.01,2013-01-02 19:10:00,
2013-01-02 14:12:00,47.7,37.7,30.02,North,360,6.0,6.0,68,0.00,,---,0.17,VWS V13.01,2013-01-02 19:12:00,
2013-01-02 14:14:00,47.7,37.7,30.02,North,5,6.0,9.0,68,0.00,,---,0.17,VWS V13.01,2013-01-02 19:14:00,
2013-01-02 14:15:00,47.6,37.6,30.02,North,355,0.0,9.0,68,0.00,,---,0.17,VWS V13.01,2013-01-02 19:15:00,
2013-01-02 14:17:00,47.6,37.2,30.02,North,355,0.0,9.0,67,0.00,,---,0.17,VWS V13.01,2013-01-02 19:17:00,
2013-01-02 14:19:00,47.6,37.2,30.02,North,355,0.0,9.0,67,0.00,,---,0.17,VWS V13.01,2013-01-02 19:19:00,
2013-01-02 14:20:00,47.6,37.6,30.02,NNE,22,5.0,9.0,68,0.00,,---,0.17,VWS V13.01,2013-01-02 19:20:00,
2013-01-02 14:22:00,47.6,37.6,30.02,NE,48,4.0,9.0,68,0.00,,---,0.17,VWS V13.01,2013-01-02 19:22:00,
2013-01-02 14:24:00,47.6,37.6,30.02,NE,48,0.0,9.0,68,0.00,,---,0.17,VWS V13.01,2013-01-02 19:24:00,
2013-01-02 14:25:00,47.6,37.6,30.02,NE,48,2.0,9.0,68,0.00,,---,0.17,VWS V13.01,2013-01-02 19:25:00,
2013-01-02 14:27:00,47.6,37.6,30.02,NE,50,3.0,9.0,68,0.00,,---,0.17,VWS V13.01,2013-01-02 19:27:00,
2013-01-02 14:29:00,47.6,37.2,30.02,NE,46,4.0,9.0,67,0.00,,---,0.17,VWS V13.01,2013-01-02 19:29:00,
2013-01-02 14:31:00,47.5,37.1,30.02,NE,34,3.0,7.0,67,0.00,,---,0.17,VWS V13.01,2013-01-02 19:31:00,
2013-01-02 14:33:00,47.5,37.5,30.02,NE,34,0.0,7.0,68,0.00,,---,0.17,VWS V13.01,2013-01-02 19:33:00,
2013-01-02 14:34:00,47.6,38.0,30.02,NE,34,3.0,7.0,69,0.00,,---,0.17,VWS V13.01,2013-01-02 19:34:00,
2013-01-02 14:36:00,47.6,37.6,30.02,NE,34,0.0,7.0,68,0.00,,---,0.17,VWS V13.01,2013-01-02 19:36:00,
2013-01-02 14:38:00,47.5,37.5,30.02,NE,36,0.0,7.0,68,0.00,,---,0.17,VWS V13.01,2013-01-02 19:38:00,
2013-01-02 14:39:00,47.5,37.5,30.02,NE,36,0.0,7.0,68,0.00,,---,0.17,VWS V13.01,2013-01-02 19:39:00,
2013-01-02 14:41:00,47.5,37.5,30.03,NE,36,0.0,7.0,68,0.00,,---,0.17,VWS V13.01,2013-01-02 19:41:00,
2013-01-02 14:43:00,47.6,37.6,30.03,NE,36,0.0,7.0,68,0.00,,---,0.17,VWS V13.01,2013-01-02 19:43:00,
2013-01-02 14:44:00,47.5,37.5,30.04,NE,37,0.0,7.0,68,0.00,,---,0.17,VWS V13.01,2013-01-02 19:44:00,
2013-01-02 14:46:00,47.5,37.5,30.04,NE,35,2.0,7.0,68,0.00,,---,0.17,VWS V13.01,2013-01-02 19:46:00,
2013-01-02 14:48:00,47.5,37.5,30.04,NE,35,0.0,7.0,68,0.00,,---,0.17,VWS V13.01,2013-01-02 19:48:00,
2013-01-02 14:49:00,47.6,37.6,30.04,NE,35,0.0,7.0,68,0.00,,---,0.17,VWS V13.01,2013-01-02 19:49:00,
2013-01-02 14:51:00,47.6,37.6,30.03,NNE,25,2.0,7.0,68,0.00,,---,0.17,VWS V13.01,2013-01-02 19:51:00,
2013-01-02 14:53:00,47.6,37.6,30.04,North,355,0.0,7.0,68,0.00,,---,0.17,VWS V13.01,2013-01-02 19:53:00,
2013-01-02 14:54:00,47.6,38.0,30.04,North,360,1.0,7.0,69,0.00,,---,0.17,VWS V13.01,2013-01-02 19:54:00,
2013-01-02 14:56:00,47.6,38.0,30.04,NNE,22,2.0,7.0,69,0.00,,---,0.17,VWS V13.01,2013-01-02 19:56:00,
2013-01-02 14:58:00,47.6,37.6,30.03,NNE,20,0.0,7.0,68,0.00,,---,0.17,VWS V13.01,2013-01-02 19:58:00,
2013-01-02 14:59:00,47.6,37.6,30.03,NNE,20,0.0,7.0,68,0.00,,---,0.17,VWS V13.01,2013-01-02 19:59:00,
2013-01-02 15:01:00,47.6,37.2,30.03,NNE,20,0.0,0.0,67,0.00,,---,0.17,VWS V13.01,2013-01-02 20:01:00,
2013-01-02 15:03:00,47.6,37.2,30.04,NNE,25,4.0,4.0,67,0.00,,---,0.17,VWS V13.01,2013-01-02 20:03:00,
2013-01-02 15:04:00,47.6,37.2,30.04,NNE,29,0.0,5.0,67,0.00,,---,0.17,VWS V13.01,2013-01-02 20:04:00,
2013-01-02 15:06:00,47.6,37.6,30.04,NNE,30,0.0,5.0,68,0.00,,---,0.17,VWS V13.01,2013-01-02 20:06:00,
2013-01-02 15:08:00,47.6,37.6,30.03,NNE,29,0.0,5.0,68,0.00,,---,0.17,VWS V13.01,2013-01-02 20:08:00,
2013-01-02 15:09:00,47.6,37.6,30.04,NNE,29,0.0,5.0,68,0.00,,---,0.17,VWS V13.01,2013-01-02 20:09:00,
2013-01-02 15:11:00,47.6,37.6,30.04,North,355,0.0,5.0,68,0.00,,---,0.17,VWS V13.01,2013-01-02 20:11:00,
2013-01-02 15:13:00,47.6,37.6,30.04,North,355,0.0,5.0,68,0.00,,---,0.17,VWS V13.01,2013-01-02 20:13:00,
2013-01-02 15:14:00,47.6,37.6,30.04,North,355,2.0,5.0,68,0.00,,---,0.17,VWS V13.01,2013-01-02 20:14:00,
2013-01-02 15:16:00,47.6,37.6,30.04,North,355,0.0,6.0,68,0.00,,---,0.17,VWS V13.01,2013-01-02 20:16:00,
2013-01-02 15:18:00,47.6,37.6,30.04,North,355,0.0,6.0,68,0.00,,---,0.17,VWS V13.01,2013-01-02 20:18:00,
2013-01-02 15:19:00,47.6,37.6,30.04,North,355,0.0,6.0,68,0.00,,---,0.17,VWS V13.01,2013-01-02 20:19:00,
2013-01-02 15:22:00,47.6,37.6,30.04,North,355,4.0,6.0,68,0.00,,---,0.17,VWS V13.01,2013-01-02 20:22:00,
2013-01-02 15:24:00,47.5,37.5,30.04,North,355,1.0,6.0,68,0.00,,---,0.17,VWS V13.01,2013-01-02 20:24:00,
2013-01-02 15:27:00,47.4,37.4,30.04,North,355,2.0,6.0,68,0.00,,---,0.17,VWS V13.01,2013-01-02 20:27:00,
2013-01-02 15:29:00,47.4,37.4,30.04,North,355,1.0,6.0,68,0.00,,---,0.17,VWS V13.01,2013-01-02 20:29:00,
2013-01-02 15:30:00,47.4,37.4,30.04,North,355,0.0,6.0,68,0.00,,---,0.17,VWS V13.01,2013-01-02 20:30:00,
2013-01-02 15:32:00,47.3,37.3,30.04,North,360,0.0,2.0,68,0.00,,---,0.17,VWS V13.01,2013-01-02 20:32:00,
2013-01-02 15:34:00,47.3,37.3,30.04,North,360,0.0,2.0,68,0.00,,---,0.17,VWS V13.01,2013-01-02 20:34:00,
2013-01-02 15:35:00,47.3,37.3,30.04,North,360,0.0,2.0,68,0.00,,---,0.17,VWS V13.01,2013-01-02 20:35:00,
2013-01-02 15:37:00,47.2,37.2,30.04,North,360,0.0,2.0,68,0.00,,---,0.17,VWS V13.01,2013-01-02 20:37:00,
2013-01-02 15:39:00,47.2,37.2,30.05,North,360,0.0,2.0,68,0.00,,---,0.17,VWS V13.01,2013-01-02 20:39:00,
2013-01-02 15:40:00,47.2,37.2,30.05,North,360,0.0,2.0,68,0.00,,---,0.17,VWS V13.01,2013-01-02 20:40:00,
2013-01-02 15:42:00,47.2,37.6,30.04,North,360,0.0,2.0,69,0.00,,---,0.17,VWS V13.01,2013-01-02 20:42:00,
2013-01-02 15:44:00,47.2,37.2,30.04,North,360,0.0,2.0,68,0.00,,---,0.17,VWS V13.01,2013-01-02 20:44:00,
2013-01-02 15:45:00,47.1,37.1,30.04,North,360,0.0,2.0,68,0.00,,---,0.17,VWS V13.01,2013-01-02 20:45:00,
2013-01-02 15:47:00,47.1,37.1,30.04,North,360,0.0,2.0,68,0.00,,---,0.17,VWS V13.01,2013-01-02 20:47:00,
2013-01-02 15:49:00,47.1,37.5,30.04,North,5,3.0,3.0,69,0.00,,---,0.17,VWS V13.01,2013-01-02 20:49:00,
2013-01-02 15:50:00,47.0,37.4,30.04,North,5,0.0,3.0,69,0.00,,---,0.17,VWS V13.01,2013-01-02 20:50:00,
2013-01-02 15:52:00,47.0,37.4,30.05,North,360,0.0,3.0,69,0.00,,---,0.17,VWS V13.01,2013-01-02 20:52:00,
2013-01-02 15:54:00,47.0,37.4,30.05,North,5,0.0,3.0,69,0.00,,---,0.17,VWS V13.01,2013-01-02 20:54:00,
2013-01-02 15:55:00,47.0,37.4,30.05,North,5,0.0,3.0,69,0.00,,---,0.17,VWS V13.01,2013-01-02 20:55:00,
2013-01-02 15:57:00,47.0,37.0,30.05,North,5,0.0,3.0,68,0.00,,---,0.17,VWS V13.01,2013-01-02 20:57:00,
2013-01-02 15:59:00,47.0,37.4,30.05,North,360,0.0,3.0,69,0.00,,---,0.17,VWS V13.01,2013-01-02 20:59:00,
2013-01-02 16:00:00,46.9,37.3,30.05,North,360,0.0,3.0,69,0.00,,---,0.17,VWS V13.01,2013-01-02 21:00:00,
2013-01-02 16:02:00,46.9,37.3,30.05,North,5,0.0,1.0,69,0.00,,---,0.17,VWS V13.01,2013-01-02 21:02:00,
2013-01-02 16:04:00,46.9,37.3,30.06,North,5,0.0,1.0,69,0.00,,---,0.17,VWS V13.01,2013-01-02 21:04:00,
2013-01-02 16:05:00,46.9,37.3,30.06,North,5,0.0,1.0,69,0.00,,---,0.17,VWS V13.01,2013-01-02 21:05:00,
2013-01-02 16:07:00,46.9,37.3,30.06,North,5,0.0,1.0,69,0.00,,---,0.17,VWS V13.01,2013-01-02 21:07:00,
2013-01-02 16:10:00,46.9,37.3,30.06,North,5,0.0,1.0,69,0.00,,---,0.17,VWS V13.01,2013-01-02 21:10:00,
2013-01-02 16:12:00,46.9,37.3,30.06,North,5,0.0,1.0,69,0.00,,---,0.17,VWS V13.01,2013-01-02 21:12:00,
2013-01-02 16:15:00,46.8,37.2,30.06,North,5,0.0,1.0,69,0.00,,---,0.17,VWS V13.01,2013-01-02 21:15:00,
2013-01-02 16:16:00,46.9,37.3,30.06,North,5,0.0,1.0,69,0.00,,---,0.17,VWS V13.01,2013-01-02 21:16:00,
2013-01-02 16:17:00,46.8,37.2,30.06,North,5,0.0,1.0,69,0.00,,---,0.17,VWS V13.01,2013-01-02 21:17:00,
2013-01-02 16:20:00,46.8,36.8,30.06,North,360,0.0,1.0,68,0.00,,---,0.17,VWS V13.01,2013-01-02 21:20:00,
2013-01-02 16:21:00,46.8,37.2,30.06,North,5,0.0,1.0,69,0.00,,---,0.17,VWS V13.01,2013-01-02 21:21:00,
2013-01-02 16:22:00,46.8,37.2,30.06,North,360,0.0,1.0,69,0.00,,---,0.17,VWS V13.01,2013-01-02 21:22:00,
2013-01-02 16:25:00,46.8,37.2,30.06,North,360,0.0,1.0,69,0.00,,---,0.17,VWS V13.01,2013-01-02 21:25:00,
2013-01-02 16:26:00,46.8,37.2,30.07,North,5,0.0,1.0,69,0.00,,---,0.17,VWS V13.01,2013-01-02 21:26:00,
2013-01-02 16:27:00,46.8,37.2,30.06,North,5,0.0,1.0,69,0.00,,---,0.17,VWS V13.01,2013-01-02 21:27:00,
2013-01-02 16:30:00,46.7,36.7,30.06,North,5,0.0,1.0,68,0.00,,---,0.17,VWS V13.01,2013-01-02 21:30:00,
2013-01-02 16:31:00,46.7,36.7,30.06,North,5,0.0,0.0,68,0.00,,---,0.17,VWS V13.01,2013-01-02 21:31:00,
2013-01-02 16:32:00,46.7,36.7,30.06,North,360,0.0,0.0,68,0.00,,---,0.17,VWS V13.01,2013-01-02 21:32:00,
2013-01-02 16:35:00,46.7,36.7,30.06,North,5,0.0,1.0,68,0.00,,---,0.17,VWS V13.01,2013-01-02 21:35:00,
2013-01-02 16:36:00,46.7,37.1,30.06,North,360,0.0,1.0,69,0.00,,---,0.17,VWS V13.01,2013-01-02 21:36:00,
2013-01-02 16:37:00,46.6,37.0,30.07,North,5,0.0,1.0,69,0.00,,---,0.17,VWS V13.01,2013-01-02 21:37:00,
2013-01-02 16:40:00,46.6,37.0,30.07,North,5,0.0,1.0,69,0.00,,---,0.17,VWS V13.01,2013-01-02 21:40:00,
2013-01-02 16:41:00,46.6,37.0,30.06,North,360,0.0,1.0,69,0.00,,---,0.17,VWS V13.01,2013-01-02 21:41:00,
2013-01-02 16:42:00,46.6,37.0,30.06,North,360,0.0,1.0,69,0.00,,---,0.17,VWS V13.01,2013-01-02 21:42:00,
2013-01-02 16:45:00,46.5,36.9,30.07,North,360,0.0,1.0,69,0.00,,---,0.17,VWS V13.01,2013-01-02 21:45:00,
2013-01-02 16:46:00,46.5,36.9,30.06,North,360,0.0,1.0,69,0.00,,---,0.17,VWS V13.01,2013-01-02 21:46:00,
2013-01-02 16:47:00,46.5,37.3,30.06,North,360,0.0,1.0,70,0.00,,---,0.17,VWS V13.01,2013-01-02 21:47:00,
2013-01-02 16:50:00,46.5,36.9,30.06,North,5,0.0,1.0,69,0.00,,---,0.17,VWS V13.01,2013-01-02 21:50:00,
2013-01-02 16:51:00,46.5,36.9,30.06,North,5,0.0,1.0,69,0.00,,---,0.17,VWS V13.01,2013-01-02 21:51:00,
2013-01-02 16:53:00,46.4,36.8,30.07,North,5,0.0,1.0,69,0.00,,---,0.17,VWS V13.01,2013-01-02 21:53:00,
2013-01-02 16:55:00,46.4,37.2,30.07,North,360,0.0,4.0,70,0.00,,---,0.17,VWS V13.01,2013-01-02 21:55:00,
2013-01-02 16:56:00,46.4,37.2,30.07,North,5,0.0,4.0,70,0.00,,---,0.17,VWS V13.01,2013-01-02 21:56:00,
2013-01-02 16:58:00,46.3,37.1,30.07,North,5,0.0,4.0,70,0.00,,---,0.17,VWS V13.01,2013-01-02 21:58:00,
2013-01-02 17:00:00,46.3,37.4,30.07,North,5,0.0,4.0,71,0.00,,---,0.17,VWS V13.01,2013-01-02 22:00:00,
2013-01-02 17:01:00,46.3,37.4,30.06,North,5,0.0,0.0,71,0.00,,---,0.17,VWS V13.01,2013-01-02 22:01:00,
2013-01-02 17:02:00,46.2,37.3,30.07,North,360,0.0,0.0,71,0.00,,---,0.17,VWS V13.01,2013-01-02 22:02:00,
2013-01-02 17:03:00,46.2,37.3,30.07,North,360,0.0,0.0,71,0.00,,---,0.17,VWS V13.01,2013-01-02 22:03:00,
2013-01-02 17:05:00,46.1,37.2,30.07,North,360,0.0,1.0,71,0.00,,---,0.17,VWS V13.01,2013-01-02 22:05:00,
2013-01-02 17:06:00,46.1,37.2,30.06,North,5,0.0,1.0,71,0.00,,---,0.17,VWS V13.01,2013-01-02 22:06:00,
2013-01-02 17:07:00,46.1,37.2,30.06,North,5,0.0,1.0,71,0.00,,---,0.17,VWS V13.01,2013-01-02 22:07:00,
2013-01-02 17:08:00,46.1,37.2,30.06,North,5,0.0,3.0,71,0.00,,---,0.17,VWS V13.01,2013-01-02 22:08:00,
2013-01-02 17:10:00,46.0,37.5,30.06,North,5,0.0,3.0,72,0.00,,---,0.17,VWS V13.01,2013-01-02 22:10:00,
2013-01-02 17:11:00,46.0,37.5,30.06,North,5,0.0,3.0,72,0.00,,---,0.17,VWS V13.01,2013-01-02 22:11:00,
2013-01-02 17:12:00,46.0,37.5,30.06,North,5,3.0,3.0,72,0.00,,---,0.17,VWS V13.01,2013-01-02 22:12:00,
2013-01-02 17:13:00,45.9,37.4,30.06,North,5,3.0,4.0,72,0.00,,---,0.17,VWS V13.01,2013-01-02 22:13:00,
2013-01-02 17:16:00,45.9,37.4,30.06,North,5,0.0,4.0,72,0.00,,---,0.17,VWS V13.01,2013-01-02 22:16:00,
2013-01-02 17:17:00,45.8,37.3,30.06,North,5,0.0,4.0,72,0.00,,---,0.17,VWS V13.01,2013-01-02 22:17:00,
2013-01-02 17:18:00,45.8,37.0,30.06,North,5,0.0,4.0,71,0.00,,---,0.17,VWS V13.01,2013-01-02 22:18:00,
2013-01-02 17:21:00,45.7,36.8,30.06,North,5,0.0,4.0,71,0.00,,---,0.17,VWS V13.01,2013-01-02 22:21:00,
2013-01-02 17:22:00,45.6,36.8,30.07,North,360,0.0,4.0,71,0.00,,---,0.17,VWS V13.01,2013-01-02 22:22:00,
2013-01-02 17:23:00,45.6,36.8,30.07,North,5,0.0,4.0,71,0.00,,---,0.17,VWS V13.01,2013-01-02 22:23:00,
2013-01-02 17:26:00,45.5,36.7,30.07,North,5,0.0,4.0,71,0.00,,---,0.17,VWS V13.01,2013-01-02 22:26:00,
2013-01-02 17:27:00,45.5,36.7,30.07,North,360,0.0,4.0,71,0.00,,---,0.17,VWS V13.01,2013-01-02 22:27:00,
2013-01-02 17:28:00,45.5,36.7,30.07,North,5,0.0,4.0,71,0.00,,---,0.17,VWS V13.01,2013-01-02 22:28:00,
2013-01-02 17:31:00,45.4,36.6,30.07,North,5,0.0,0.0,71,0.00,,---,0.17,VWS V13.01,2013-01-02 22:31:00,
2013-01-02 17:32:00,45.4,36.6,30.07,North,5,0.0,0.0,71,0.00,,---,0.17,VWS V13.01,2013-01-02 22:32:00,
2013-01-02 17:34:00,45.4,36.6,30.07,North,5,0.0,0.0,71,0.00,,---,0.17,VWS V13.01,2013-01-02 22:34:00,
2013-01-02 17:36:00,45.3,36.5,30.07,North,5,0.0,2.0,71,0.00,,---,0.17,VWS V13.01,2013-01-02 22:36:00,
2013-01-02 17:37:00,45.3,36.5,30.07,North,5,0.0,2.0,71,0.00,,---,0.17,VWS V13.01,2013-01-02 22:37:00,
2013-01-02 17:39:00,45.2,36.7,30.07,North,5,0.0,2.0,72,0.00,,---,0.17,VWS V13.01,2013-01-02 22:39:00,
2013-01-02 17:41:00,45.2,36.7,30.07,North,5,0.0,2.0,72,0.00,,---,0.17,VWS V13.01,2013-01-02 22:41:00,
2013-01-02 17:42:00,45.2,36.7,30.07,North,360,0.0,2.0,72,0.00,,---,0.17,VWS V13.01,2013-01-02 22:42:00,
2013-01-02 17:44:00,45.2,36.7,30.07,North,360,0.0,2.0,72,0.00,,---,0.17,VWS V13.01,2013-01-02 22:44:00,
2013-01-02 17:46:00,45.1,36.6,30.07,North,360,0.0,2.0,72,0.00,,---,0.17,VWS V13.01,2013-01-02 22:46:00,
2013-01-02 17:47:00,45.1,36.6,30.07,North,5,0.0,2.0,72,0.00,,---,0.17,VWS V13.01,2013-01-02 22:47:00,
2013-01-02 17:49:00,45.1,36.6,30.07,North,5,0.0,2.0,72,0.00,,---,0.17,VWS V13.01,2013-01-02 22:49:00,
2013-01-02 17:51:00,45.0,36.5,30.07,North,5,0.0,2.0,72,0.00,,---,0.17,VWS V13.01,2013-01-02 22:51:00,
2013-01-02 17:52:00,45.1,36.6,30.07,North,5,0.0,2.0,72,0.00,,---,0.17,VWS V13.01,2013-01-02 22:52:00,
2013-01-02 17:54:00,45.0,36.5,30.07,North,5,0.0,2.0,72,0.00,,---,0.17,VWS V13.01,2013-01-02 22:54:00,
2013-01-02 17:56:00,45.0,36.5,30.07,North,360,0.0,2.0,72,0.00,,---,0.17,VWS V13.01,2013-01-02 22:56:00,
2013-01-02 17:57:00,45.0,36.9,30.07,North,5,0.0,2.0,73,0.00,,---,0.17,VWS V13.01,2013-01-02 22:57:00,
2013-01-02 17:59:00,45.0,36.9,30.07,North,5,0.0,2.0,73,0.00,,---,0.17,VWS V13.01,2013-01-02 22:59:00,
2013-01-02 18:01:00,45.0,36.9,30.08,North,360,0.0,1.0,73,0.00,,---,0.17,VWS V13.01,2013-01-02 23:01:00,
2013-01-02 18:02:00,45.0,36.9,30.08,North,5,0.0,1.0,73,0.00,,---,0.17,VWS V13.01,2013-01-02 23:02:00,
2013-01-02 18:04:00,44.9,37.1,30.08,North,5,0.0,1.0,74,0.00,,---,0.17,VWS V13.01,2013-01-02 23:04:00,
2013-01-02 18:06:00,44.9,37.1,30.08,North,5,0.0,1.0,74,0.00,,---,0.17,VWS V13.01,2013-01-02 23:06:00,
2013-01-02 18:07:00,44.9,37.1,30.08,North,5,0.0,1.0,74,0.00,,---,0.17,VWS V13.01,2013-01-02 23:07:00,
2013-01-02 18:09:00,44.8,37.0,30.08,North,5,0.0,1.0,74,0.00,,---,0.17,VWS V13.01,2013-01-02 23:09:00,
2013-01-02 18:11:00,44.8,37.0,30.08,North,360,0.0,1.0,74,0.00,,---,0.17,VWS V13.01,2013-01-02 23:11:00,
2013-01-02 18:13:00,44.8,37.0,30.08,North,5,0.0,1.0,74,0.00,,---,0.17,VWS V13.01,2013-01-02 23:13:00,
2013-01-02 18:14:00,44.7,36.9,30.08,North,360,0.0,1.0,74,0.00,,---,0.17,VWS V13.01,2013-01-02 23:14:00,
2013-01-02 18:16:00,44.7,36.9,30.09,North,5,0.0,1.0,74,0.00,,---,0.17,VWS V13.01,2013-01-02 23:16:00,
2013-01-02 18:18:00,44.7,37.3,30.08,North,5,0.0,1.0,75,0.00,,---,0.17,VWS V13.01,2013-01-02 23:18:00,
2013-01-02 18:19:00,44.7,37.3,30.09,North,5,0.0,1.0,75,0.00,,---,0.17,VWS V13.01,2013-01-02 23:19:00,
2013-01-02 18:22:00,44.7,37.3,30.09,North,360,0.0,1.0,75,0.00,,---,0.17,VWS V13.01,2013-01-02 23:22:00,
2013-01-02 18:23:00,44.6,37.2,30.09,North,360,0.0,1.0,75,0.00,,---,0.17,VWS V13.01,2013-01-02 23:23:00,
2013-01-02 18:24:00,44.6,37.2,30.08,North,360,0.0,1.0,75,0.00,,---,0.17,VWS V13.01,2013-01-02 23:24:00,
2013-01-02 18:27:00,44.6,37.2,30.08,North,5,0.0,1.0,75,0.00,,---,0.17,VWS V13.01,2013-01-02 23:27:00,
2013-01-02 18:28:00,44.6,37.5,30.08,North,5,0.0,1.0,76,0.00,,---,0.17,VWS V13.01,2013-01-02 23:28:00,
2013-01-02 18:29:00,44.5,37.4,30.07,North,360,0.0,1.0,76,0.00,,---,0.17,VWS V13.01,2013-01-02 23:29:00,
2013-01-02 18:32:00,44.5,37.4,30.07,North,360,0.0,0.0,76,0.00,,---,0.17,VWS V13.01,2013-01-02 23:32:00,
2013-01-02 18:33:00,44.5,37.4,30.08,North,5,0.0,2.0,76,0.00,,---,0.17,VWS V13.01,2013-01-02 23:33:00,
2013-01-02 18:34:00,44.5,37.4,30.08,North,11,0.0,5.0,76,0.00,,---,0.17,VWS V13.01,2013-01-02 23:34:00,
2013-01-02 18:37:00,44.4,37.3,30.08,NNE,12,0.0,5.0,76,0.00,,---,0.17,VWS V13.01,2013-01-02 23:37:00,
2013-01-02 18:38:00,44.4,37.3,30.08,NNE,12,0.0,5.0,76,0.00,,---,0.17,VWS V13.01,2013-01-02 23:38:00,
2013-01-02 18:39:00,44.3,37.2,30.09,NNE,12,0.0,5.0,76,0.00,,---,0.17,VWS V13.01,2013-01-02 23:39:00,
2013-01-02 18:42:00,44.3,37.2,30.10,NNE,12,0.0,5.0,76,0.00,,---,0.17,VWS V13.01,2013-01-02 23:42:00,
2013-01-02 18:43:00,44.2,37.1,30.10,North,11,1.0,5.0,76,0.00,,---,0.17,VWS V13.01,2013-01-02 23:43:00,
2013-01-02 18:44:00,44.2,36.8,30.11,NNE,12,0.0,5.0,75,0.00,,---,0.17,VWS V13.01,2013-01-02 23:44:00,
2013-01-02 18:47:00,44.2,36.8,30.11,NNE,12,0.0,5.0,75,0.00,,---,0.17,VWS V13.01,2013-01-02 23:47:00,
2013-01-02 18:48:00,44.1,36.7,30.12,NNE,12,1.0,5.0,75,0.00,,---,0.17,VWS V13.01,2013-01-02 23:48:00,
2013-01-02 18:49:00,44.1,36.7,30.12,North,11,0.0,5.0,75,0.00,,---,0.17,VWS V13.01,2013-01-02 23:49:00,
2013-01-02 18:52:00,44.1,36.7,30.11,NNE,12,0.0,5.0,75,0.00,,---,0.17,VWS V13.01,2013-01-02 23:52:00,
2013-01-02 18:53:00,44.1,36.7,30.11,North,11,0.0,5.0,75,0.00,,---,0.17,VWS V13.01,2013-01-02 23:53:00,
2013-01-02 18:54:00,44.0,36.6,30.11,NNE,12,0.0,5.0,75,0.00,,---,0.17,VWS V13.01,2013-01-02 23:54:00,
2013-01-02 18:57:00,44.0,36.6,30.11,NNE,12,0.0,5.0,75,0.00,,---,0.17,VWS V13.01,2013-01-02 23:57:00,
2013-01-02 18:58:00,44.0,36.6,30.11,NNE,12,0.0,5.0,75,0.00,,---,0.17,VWS V13.01,2013-01-02 23:58:00,
2013-01-02 18:59:00,44.0,36.6,30.11,North,360,2.0,6.0,75,0.00,,---,0.17,VWS V13.01,2013-01-02 23:59:00,
2013-01-02 19:02:00,43.9,36.8,30.11,NNE,13,3.0,4.0,76,0.00,,---,0.17,VWS V13.01,2013-01-03 00:02:00,
2013-01-02 19:03:00,43.9,36.5,30.11,NNE,13,1.0,4.0,75,0.00,,---,0.17,VWS V13.01,2013-01-03 00:03:00,
2013-01-02 19:04:00,43.9,36.5,30.11,NNE,13,1.0,5.0,75,0.00,,---,0.17,VWS V13.01,2013-01-03 00:04:00,
2013-01-02 19:07:00,43.8,36.4,30.12,NNE,13,3.0,5.0,75,0.00,,---,0.17,VWS V13.01,2013-01-03 00:07:00,
2013-01-02 19:09:00,43.8,36.4,30.12,North,360,4.0,6.0,75,0.00,,---,0.17,VWS V13.01,2013-01-03 00:09:00,
2013-01-02 19:10:00,43.7,36.0,30.12,North,350,5.0,7.0,74,0.00,,---,0.17,VWS V13.01,2013-01-03 00:10:00,
2013-01-02 19:12:00,43.7,36.3,30.12,North,355,0.0,7.0,75,0.00,,---,0.17,VWS V13.01,2013-01-03 00:12:00,
2013-01-02 19:14:00,43.7,36.0,30.12,North,355,0.0,7.0,74,0.00,,---,0.17,VWS V13.01,2013-01-03 00:14:00,
2013-01-02 19:15:00,43.7,36.0,30.12,North,355,0.0,7.0,74,0.00,,---,0.17,VWS V13.01,2013-01-03 00:15:00,
2013-01-02 19:17:00,43.7,36.0,30.12,North,355,0.0,7.0,74,0.00,,---,0.17,VWS V13.01,2013-01-03 00:17:00,
2013-01-02 19:19:00,43.6,35.9,30.12,North,355,0.0,7.0,74,0.00,,---,0.17,VWS V13.01,2013-01-03 00:19:00,
2013-01-02 19:20:00,43.6,35.9,30.12,North,355,0.0,7.0,74,0.00,,---,0.17,VWS V13.01,2013-01-03 00:20:00,
2013-01-02 19:22:00,43.6,35.9,30.12,North,355,0.0,7.0,74,0.00,,---,0.17,VWS V13.01,2013-01-03 00:22:00,
2013-01-02 19:24:00,43.6,35.9,30.12,North,355,0.0,7.0,74,0.00,,---,0.17,VWS V13.01,2013-01-03 00:24:00,
2013-01-02 19:25:00,43.6,35.9,30.11,North,355,0.0,7.0,74,0.00,,---,0.17,VWS V13.01,2013-01-03 00:25:00,
2013-01-02 19:27:00,43.5,36.1,30.11,North,355,0.0,7.0,75,0.00,,---,0.17,VWS V13.01,2013-01-03 00:27:00,
2013-01-02 19:29:00,43.5,36.1,30.11,North,355,0.0,7.0,75,0.00,,---,0.17,VWS V13.01,2013-01-03 00:29:00,
2013-01-02 19:30:00,43.5,36.1,30.11,North,355,0.0,7.0,75,0.00,,---,0.17,VWS V13.01,2013-01-03 00:30:00,
2013-01-02 19:35:00,43.4,35.7,30.11,North,355,0.0,2.0,74,0.00,,---,0.17,VWS V13.01,2013-01-03 00:35:00,
2013-01-02 19:36:00,43.3,35.6,30.11,North,355,0.0,2.0,74,0.00,,---,0.17,VWS V13.01,2013-01-03 00:36:00,
2013-01-02 19:38:00,43.3,35.6,30.11,North,360,0.0,5.0,74,0.00,,---,0.17,VWS V13.01,2013-01-03 00:38:00,
2013-01-02 19:40:00,43.2,35.5,30.12,North,5,0.0,5.0,74,0.00,,---,0.17,VWS V13.01,2013-01-03 00:40:00,
2013-01-02 19:41:00,43.2,35.5,30.12,North,5,0.0,5.0,74,0.00,,---,0.17,VWS V13.01,2013-01-03 00:41:00,
2013-01-02 19:43:00,43.2,35.1,30.12,North,5,0.0,5.0,73,0.00,,---,0.17,VWS V13.01,2013-01-03 00:43:00,
2013-01-02 19:45:00,43.1,35.0,30.12,North,5,0.0,5.0,73,0.00,,---,0.17,VWS V13.01,2013-01-03 00:45:00,
2013-01-02 19:46:00,43.1,35.0,30.13,North,5,0.0,5.0,73,0.00,,---,0.17,VWS V13.01,2013-01-03 00:46:00,
2013-01-02 19:48:00,43.1,35.4,30.13,North,5,2.0,5.0,74,0.00,,---,0.17,VWS V13.01,2013-01-03 00:48:00,
2013-01-02 19:50:00,43.1,35.4,30.13,North,5,0.0,5.0,74,0.00,,---,0.17,VWS V13.01,2013-01-03 00:50:00,
2013-01-02 19:51:00,43.0,35.3,30.13,North,5,0.0,5.0,74,0.00,,---,0.17,VWS V13.01,2013-01-03 00:51:00,
2013-01-02 19:54:00,43.0,35.3,30.13,North,5,0.0,5.0,74,0.00,,---,0.17,VWS V13.01,2013-01-03 00:54:00,
2013-01-02 19:55:00,43.0,35.3,30.13,North,5,1.0,5.0,74,0.00,,---,0.17,VWS V13.01,2013-01-03 00:55:00,
2013-01-02 19:56:00,43.0,35.3,30.13,North,360,4.0,5.0,74,0.00,,---,0.17,VWS V13.01,2013-01-03 00:56:00,
2013-01-02 19:59:00,42.9,35.2,30.12,North,360,0.0,6.0,74,0.00,,---,0.17,VWS V13.01,2013-01-03 00:59:00,
2013-01-02 20:00:00,42.9,35.2,30.12,North,360,1.0,6.0,74,0.00,,---,0.17,VWS V13.01,2013-01-03 01:00:00,
2013-01-02 20:01:00,42.9,35.2,30.11,North,360,2.0,3.0,74,0.00,,---,0.17,VWS V13.01,2013-01-03 01:01:00,
2013-01-02 20:04:00,42.8,35.1,30.11,NNE,13,0.0,6.0,74,0.00,,---,0.17,VWS V13.01,2013-01-03 01:04:00,
2013-01-02 20:06:00,42.7,35.0,30.11,NNE,13,0.0,6.0,74,0.00,,---,0.17,VWS V13.01,2013-01-03 01:06:00,
2013-01-02 20:07:00,42.7,35.0,30.12,NNE,13,0.0,6.0,74,0.00,,---,0.17,VWS V13.01,2013-01-03 01:07:00,
2013-01-02 20:09:00,42.7,35.0,30.12,NNE,13,2.0,6.0,74,0.00,,---,0.17,VWS V13.01,2013-01-03 01:09:00,
2013-01-02 20:11:00,42.6,34.9,30.12,NNE,13,3.0,6.0,74,0.00,,---,0.17,VWS V13.01,2013-01-03 01:11:00,
2013-01-02 20:12:00,42.6,34.9,30.12,NNE,13,1.0,6.0,74,0.00,,---,0.17,VWS V13.01,2013-01-03 01:12:00,
2013-01-02 20:14:00,42.6,34.9,30.11,NNE,13,3.0,6.0,74,0.00,,---,0.17,VWS V13.01,2013-01-03 01:14:00,
2013-01-02 20:16:00,42.5,34.8,30.11,NNE,13,0.0,6.0,74,0.00,,---,0.17,VWS V13.01,2013-01-03 01:16:00,
2013-01-02 20:17:00,42.5,34.8,30.11,NNE,13,1.0,6.0,74,0.00,,---,0.17,VWS V13.01,2013-01-03 01:17:00,
2013-01-02 20:19:00,42.5,34.5,30.11,NNE,14,1.0,6.0,73,0.00,,---,0.17,VWS V13.01,2013-01-03 01:19:00,
2013-01-02 20:21:00,42.4,34.4,30.11,NNE,13,0.0,6.0,73,0.00,,---,0.17,VWS V13.01,2013-01-03 01:21:00,
2013-01-02 20:22:00,42.4,34.4,30.11,NNE,13,0.0,6.0,73,0.00,,---,0.17,VWS V13.01,2013-01-03 01:22:00,
2013-01-02 20:24:00,42.4,34.4,30.12,NNE,14,0.0,6.0,73,0.00,,---,0.17,VWS V13.01,2013-01-03 01:24:00,
2013-01-02 20:26:00,42.4,34.4,30.12,North,360,3.0,7.0,73,0.00,,---,0.17,VWS V13.01,2013-01-03 01:26:00,
2013-01-02 20:27:00,42.3,34.3,30.12,North,5,0.0,7.0,73,0.00,,---,0.17,VWS V13.01,2013-01-03 01:27:00,
2013-01-02 20:30:00,42.3,34.3,30.13,North,5,0.0,7.0,73,0.00,,---,0.17,VWS V13.01,2013-01-03 01:30:00,
2013-01-02 20:31:00,42.3,34.3,30.12,North,5,0.0,0.0,73,0.00,,---,0.17,VWS V13.01,2013-01-03 01:31:00,
2013-01-02 20:32:00,42.2,34.2,30.12,North,5,0.0,0.0,73,0.00,,---,0.17,VWS V13.01,2013-01-03 01:32:00,
2013-01-02 20:35:00,42.2,34.2,30.11,North,5,0.0,4.0,73,0.00,,---,0.17,VWS V13.01,2013-01-03 01:35:00,
2013-01-02 20:36:00,42.1,34.1,30.11,North,5,2.0,4.0,73,0.00,,---,0.17,VWS V13.01,2013-01-03 01:36:00,
2013-01-02 20:37:00,42.1,34.1,30.11,North,5,0.0,4.0,73,0.00,,---,0.17,VWS V13.01,2013-01-03 01:37:00,
2013-01-02 20:40:00,42.0,33.6,30.11,North,5,0.0,4.0,72,0.00,,---,0.17,VWS V13.01,2013-01-03 01:40:00,
2013-01-02 20:41:00,42.0,33.6,30.11,North,5,0.0,4.0,72,0.00,,---,0.17,VWS V13.01,2013-01-03 01:41:00,
2013-01-02 20:42:00,42.0,33.6,30.11,North,5,0.0,4.0,72,0.00,,---,0.17,VWS V13.01,2013-01-03 01:42:00,
2013-01-02 20:45:00,42.0,34.0,30.12,North,5,0.0,4.0,73,0.00,,---,0.17,VWS V13.01,2013-01-03 01:45:00,
2013-01-02 20:46:00,42.0,34.0,30.12,North,5,0.0,4.0,73,0.00,,---,0.17,VWS V13.01,2013-01-03 01:46:00,
2013-01-02 20:47:00,41.9,33.9,30.12,North,5,2.0,4.0,73,0.00,,---,0.17,VWS V13.01,2013-01-03 01:47:00,
2013-01-02 20:50:00,41.9,33.9,30.12,North,5,0.0,5.0,73,0.00,,---,0.17,VWS V13.01,2013-01-03 01:50:00,
2013-01-02 20:51:00,41.9,33.9,30.12,North,360,0.0,5.0,73,0.00,,---,0.17,VWS V13.01,2013-01-03 01:51:00,
2013-01-02 20:52:00,41.8,33.5,30.12,North,360,0.0,5.0,72,0.00,,---,0.17,VWS V13.01,2013-01-03 01:52:00,
2013-01-02 20:55:00,41.8,33.5,30.12,North,5,0.0,5.0,72,0.00,,---,0.17,VWS V13.01,2013-01-03 01:55:00,
2013-01-02 20:57:00,41.8,33.5,30.13,North,5,0.0,5.0,72,0.00,,---,0.17,VWS V13.01,2013-01-03 01:57:00,
2013-01-02 21:00:00,41.7,33.3,30.14,North,5,0.0,5.0,72,0.00,,---,0.17,VWS V13.01,2013-01-03 02:00:00,
2013-01-02 21:02:00,41.7,33.3,30.14,North,5,0.0,0.0,72,0.00,,---,0.17,VWS V13.01,2013-01-03 02:02:00,
2013-01-02 21:05:00,41.7,33.3,30.13,North,5,0.0,5.0,72,0.00,,---,0.17,VWS V13.01,2013-01-03 02:05:00,
2013-01-02 21:07:00,41.6,33.3,30.13,North,5,0.0,5.0,72,0.00,,---,0.17,VWS V13.01,2013-01-03 02:07:00,
2013-01-02 21:08:00,41.6,33.3,30.13,North,360,0.0,5.0,72,0.00,,---,0.17,VWS V13.01,2013-01-03 02:08:00,
2013-01-02 21:11:00,41.6,33.3,30.12,North,5,0.0,5.0,72,0.00,,---,0.17,VWS V13.01,2013-01-03 02:11:00,
2013-01-02 21:12:00,41.6,33.3,30.12,North,5,0.0,5.0,72,0.00,,---,0.17,VWS V13.01,2013-01-03 02:12:00,
2013-01-02 21:13:00,41.6,33.6,30.12,North,5,0.0,5.0,73,0.00,,---,0.17,VWS V13.01,2013-01-03 02:13:00,
2013-01-02 21:16:00,41.5,33.5,30.12,North,360,2.0,5.0,73,0.00,,---,0.17,VWS V13.01,2013-01-03 02:16:00,
2013-01-02 21:17:00,41.5,33.5,30.12,North,360,3.0,5.0,73,0.00,,---,0.17,VWS V13.01,2013-01-03 02:17:00,
2013-01-02 21:18:00,41.5,33.5,30.12,North,5,0.0,5.0,73,0.00,,---,0.17,VWS V13.01,2013-01-03 02:18:00,
2013-01-02 21:21:00,41.5,33.5,30.12,North,360,0.0,5.0,73,0.00,,---,0.17,VWS V13.01,2013-01-03 02:21:00,
2013-01-02 21:22:00,41.5,33.5,30.12,North,5,0.0,5.0,73,0.00,,---,0.17,VWS V13.01,2013-01-03 02:22:00,
2013-01-02 21:23:00,41.5,33.5,30.12,North,5,2.0,5.0,73,0.00,,---,0.17,VWS V13.01,2013-01-03 02:23:00,
2013-01-02 21:26:00,41.4,33.4,30.13,North,5,0.0,5.0,73,0.00,,---,0.17,VWS V13.01,2013-01-03 02:26:00,
2013-01-02 21:27:00,41.4,33.4,30.13,North,360,0.0,5.0,73,0.00,,---,0.17,VWS V13.01,2013-01-03 02:27:00,
2013-01-02 21:28:00,41.4,33.4,30.13,North,5,0.0,5.0,73,0.00,,---,0.17,VWS V13.01,2013-01-03 02:28:00,
2013-01-02 21:29:00,41.4,33.4,30.13,North,360,0.0,5.0,73,0.00,,---,0.17,VWS V13.01,2013-01-03 02:29:00,
2013-01-02 21:31:00,41.4,33.4,30.12,North,5,0.0,1.0,73,0.00,,---,0.17,VWS V13.01,2013-01-03 02:31:00,
2013-01-02 21:32:00,41.4,33.4,30.12,North,5,0.0,1.0,73,0.00,,---,0.17,VWS V13.01,2013-01-03 02:32:00,
2013-01-02 21:33:00,41.4,33.4,30.12,North,5,0.0,1.0,73,0.00,,---,0.17,VWS V13.01,2013-01-03 02:33:00,
2013-01-02 21:34:00,41.3,33.3,30.12,North,360,0.0,1.0,73,0.00,,---,0.17,VWS V13.01,2013-01-03 02:34:00,
2013-01-02 21:36:00,41.3,33.3,30.12,North,360,0.0,1.0,73,0.00,,---,0.17,VWS V13.01,2013-01-03 02:36:00,
2013-01-02 21:37:00,41.3,33.3,30.12,North,5,0.0,1.0,73,0.00,,---,0.17,VWS V13.01,2013-01-03 02:37:00,
2013-01-02 21:38:00,41.3,33.3,30.12,North,360,0.0,1.0,73,0.00,,---,0.17,VWS V13.01,2013-01-03 02:38:00,
2013-01-02 21:39:00,41.3,33.3,30.12,North,5,0.0,1.0,73,0.00,,---,0.17,VWS V13.01,2013-01-03 02:39:00,
2013-01-02 21:41:00,41.3,33.3,30.12,North,5,3.0,3.0,73,0.00,,---,0.17,VWS V13.01,2013-01-03 02:41:00,
2013-01-02 21:42:00,41.3,33.3,30.12,North,360,1.0,3.0,73,0.00,,---,0.17,VWS V13.01,2013-01-03 02:42:00,
2013-01-02 21:43:00,41.3,33.7,30.12,North,5,0.0,3.0,74,0.00,,---,0.17,VWS V13.01,2013-01-03 02:43:00,
2013-01-02 21:44:00,41.3,33.7,30.12,North,5,0.0,3.0,74,0.00,,---,0.17,VWS V13.01,2013-01-03 02:44:00,
2013-01-02 21:46:00,41.3,33.7,30.14,North,5,0.0,3.0,74,0.00,,---,0.17,VWS V13.01,2013-01-03 02:46:00,
2013-01-02 21:47:00,41.2,33.5,30.14,North,5,0.0,3.0,74,0.00,,---,0.17,VWS V13.01,2013-01-03 02:47:00,
2013-01-02 21:48:00,41.3,33.7,30.14,North,360,1.0,3.0,74,0.00,,---,0.17,VWS V13.01,2013-01-03 02:48:00,
2013-01-02 21:49:00,41.2,33.5,30.14,North,5,3.0,3.0,74,0.00,,---,0.17,VWS V13.01,2013-01-03 02:49:00,
2013-01-02 21:51:00,41.2,33.5,30.15,North,5,0.0,3.0,74,0.00,,---,0.17,VWS V13.01,2013-01-03 02:51:00,
2013-01-02 21:52:00,41.2,33.5,30.14,North,5,0.0,3.0,74,0.00,,---,0.17,VWS V13.01,2013-01-03 02:52:00,
2013-01-02 21:54:00,41.2,33.5,30.14,North,360,0.0,3.0,74,0.00,,---,0.17,VWS V13.01,2013-01-03 02:54:00,
2013-01-02 21:56:00,41.2,33.5,30.14,North,5,0.0,3.0,74,0.00,,---,0.17,VWS V13.01,2013-01-03 02:56:00,
2013-01-02 21:57:00,41.2,33.5,30.13,North,5,1.0,3.0,74,0.00,,---,0.17,VWS V13.01,2013-01-03 02:57:00,
2013-01-02 21:59:00,41.1,33.5,30.13,North,360,0.0,3.0,74,0.00,,---,0.17,VWS V13.01,2013-01-03 02:59:00,
2013-01-02 22:00:00,41.1,33.5,30.13,North,360,0.0,3.0,74,0.00,,---,0.17,VWS V13.01,2013-01-03 03:00:00,
2013-01-02 22:01:00,41.1,33.5,30.14,North,5,0.0,0.0,74,0.00,,---,0.17,VWS V13.01,2013-01-03 03:01:00,
2013-01-02 22:02:00,41.1,33.5,30.14,North,5,0.0,0.0,74,0.00,,---,0.17,VWS V13.01,2013-01-03 03:02:00,
2013-01-02 22:04:00,41.1,33.5,30.14,North,5,0.0,0.0,74,0.00,,---,0.17,VWS V13.01,2013-01-03 03:04:00,
2013-01-02 22:05:00,41.1,33.5,30.14,North,360,0.0,0.0,74,0.00,,---,0.17,VWS V13.01,2013-01-03 03:05:00,
2013-01-02 22:06:00,41.1,33.5,30.14,North,360,0.0,0.0,74,0.00,,---,0.17,VWS V13.01,2013-01-03 03:06:00,
2013-01-02 22:07:00,41.1,33.5,30.14,North,360,0.0,0.0,74,0.00,,---,0.17,VWS V13.01,2013-01-03 03:07:00,
2013-01-02 22:09:00,41.1,33.5,30.14,North,5,0.0,0.0,74,0.00,,---,0.17,VWS V13.01,2013-01-03 03:09:00,
2013-01-02 22:10:00,41.1,33.5,30.14,North,360,0.0,0.0,74,0.00,,---,0.17,VWS V13.01,2013-01-03 03:10:00,
2013-01-02 22:12:00,41.1,33.5,30.14,North,5,0.0,0.0,74,0.00,,---,0.17,VWS V13.01,2013-01-03 03:12:00,
2013-01-02 22:13:00,41.1,33.5,30.14,North,5,0.0,0.0,74,0.00,,---,0.17,VWS V13.01,2013-01-03 03:13:00,
2013-01-02 22:14:00,41.1,33.5,30.14,North,5,0.0,0.0,74,0.00,,---,0.17,VWS V13.01,2013-01-03 03:14:00,
2013-01-02 22:15:00,41.1,33.5,30.14,North,5,0.0,0.0,74,0.00,,---,0.17,VWS V13.01,2013-01-03 03:15:00,
2013-01-02 22:17:00,41.1,33.5,30.14,North,5,0.0,0.0,74,0.00,,---,0.17,VWS V13.01,2013-01-03 03:17:00,
2013-01-02 22:18:00,41.1,33.5,30.14,North,360,0.0,0.0,74,0.00,,---,0.17,VWS V13.01,2013-01-03 03:18:00,
2013-01-02 22:19:00,41.1,33.5,30.14,North,5,0.0,0.0,74,0.00,,---,0.17,VWS V13.01,2013-01-03 03:19:00,
2013-01-02 22:20:00,41.1,33.5,30.14,North,5,0.0,0.0,74,0.00,,---,0.17,VWS V13.01,2013-01-03 03:20:00,
2013-01-02 22:22:00,41.1,33.8,30.14,North,360,0.0,0.0,75,0.00,,---,0.17,VWS V13.01,2013-01-03 03:22:00,
2013-01-02 22:23:00,41.1,33.8,30.14,North,5,0.0,0.0,75,0.00,,---,0.17,VWS V13.01,2013-01-03 03:23:00,
2013-01-02 22:24:00,41.1,33.8,30.14,North,5,0.0,0.0,75,0.00,,---,0.17,VWS V13.01,2013-01-03 03:24:00,
2013-01-02 22:25:00,41.1,33.8,30.14,North,5,0.0,0.0,75,0.00,,---,0.17,VWS V13.01,2013-01-03 03:25:00,
2013-01-02 22:27:00,41.1,33.8,30.14,North,5,0.0,1.0,75,0.00,,---,0.17,VWS V13.01,2013-01-03 03:27:00,
2013-01-02 22:29:00,41.1,33.8,30.14,North,5,0.0,1.0,75,0.00,,---,0.17,VWS V13.01,2013-01-03 03:29:00,
2013-01-02 22:30:00,41.1,33.8,30.14,North,360,0.0,1.0,75,0.00,,---,0.17,VWS V13.01,2013-01-03 03:30:00,
2013-01-02 22:32:00,41.1,33.8,30.15,North,5,0.0,4.0,75,0.00,,---,0.17,VWS V13.01,2013-01-03 03:32:00,
2013-01-02 22:35:00,41.0,33.4,30.14,North,360,0.0,4.0,74,0.00,,---,0.17,VWS V13.01,2013-01-03 03:35:00,
2013-01-02 22:39:00,41.0,33.4,30.15,North,5,0.0,4.0,74,0.00,,---,0.17,VWS V13.01,2013-01-03 03:39:00,
2013-01-02 22:41:00,41.0,33.4,30.14,North,360,0.0,4.0,74,0.00,,---,0.17,VWS V13.01,2013-01-03 03:41:00,
2013-01-02 22:42:00,41.0,33.4,30.15,North,5,0.0,4.0,74,0.00,,---,0.17,VWS V13.01,2013-01-03 03:42:00,
2013-01-02 22:44:00,41.0,33.4,30.15,North,360,0.0,4.0,74,0.00,,---,0.17,VWS V13.01,2013-01-03 03:44:00,
2013-01-02 22:45:00,41.0,33.4,30.15,North,5,0.0,4.0,74,0.00,,---,0.17,VWS V13.01,2013-01-03 03:45:00,
2013-01-02 22:46:00,40.9,33.3,30.15,North,5,0.0,4.0,74,0.00,,---,0.17,VWS V13.01,2013-01-03 03:46:00,
2013-01-02 22:47:00,40.9,33.3,30.15,North,5,0.0,4.0,74,0.00,,---,0.17,VWS V13.01,2013-01-03 03:47:00,
2013-01-02 22:50:00,40.9,33.3,30.15,North,360,0.0,4.0,74,0.00,,---,0.17,VWS V13.01,2013-01-03 03:50:00,
2013-01-02 22:51:00,40.9,33.3,30.15,North,360,0.0,4.0,74,0.00,,---,0.17,VWS V13.01,2013-01-03 03:51:00,
2013-01-02 22:52:00,40.9,33.3,30.15,North,360,0.0,4.0,74,0.00,,---,0.17,VWS V13.01,2013-01-03 03:52:00,
2013-01-02 22:55:00,40.9,33.3,30.15,North,360,0.0,4.0,74,0.00,,---,0.17,VWS V13.01,2013-01-03 03:55:00,
2013-01-02 22:56:00,40.9,33.3,30.15,North,5,0.0,4.0,74,0.00,,---,0.17,VWS V13.01,2013-01-03 03:56:00,
2013-01-02 22:57:00,40.9,33.3,30.14,North,360,0.0,5.0,74,0.00,,---,0.17,VWS V13.01,2013-01-03 03:57:00,
2013-01-02 23:00:00,40.9,33.3,30.15,North,5,0.0,5.0,74,0.00,,---,0.17,VWS V13.01,2013-01-03 04:00:00,
2013-01-02 23:01:00,40.9,33.3,30.16,North,360,0.0,0.0,74,0.00,,---,0.17,VWS V13.01,2013-01-03 04:01:00,
2013-01-02 23:02:00,40.9,33.3,30.16,North,360,0.0,0.0,74,0.00,,---,0.17,VWS V13.01,2013-01-03 04:02:00,
2013-01-02 23:05:00,40.9,33.3,30.15,North,5,0.0,0.0,74,0.00,,---,0.17,VWS V13.01,2013-01-03 04:05:00,
2013-01-02 23:06:00,40.8,33.2,30.15,North,5,0.0,1.0,74,0.00,,---,0.17,VWS V13.01,2013-01-03 04:06:00,
2013-01-02 23:07:00,40.8,33.2,30.15,North,360,0.0,1.0,74,0.00,,---,0.17,VWS V13.01,2013-01-03 04:07:00,
2013-01-02 23:10:00,40.8,33.2,30.16,North,5,0.0,1.0,74,0.00,,---,0.17,VWS V13.01,2013-01-03 04:10:00,
2013-01-02 23:11:00,40.8,33.2,30.15,North,5,0.0,1.0,74,0.00,,---,0.17,VWS V13.01,2013-01-03 04:11:00,
2013-01-02 23:12:00,40.8,33.2,30.15,North,5,0.0,1.0,74,0.00,,---,0.17,VWS V13.01,2013-01-03 04:12:00,
2013-01-02 23:15:00,40.8,33.2,30.15,North,360,0.0,1.0,74,0.00,,---,0.17,VWS V13.01,2013-01-03 04:15:00,
2013-01-02 23:16:00,40.8,33.2,30.15,North,5,0.0,1.0,74,0.00,,---,0.17,VWS V13.01,2013-01-03 04:16:00,
2013-01-02 23:17:00,40.8,33.2,30.15,North,5,0.0,1.0,74,0.00,,---,0.17,VWS V13.01,2013-01-03 04:17:00,
2013-01-02 23:20:00,40.8,33.2,30.15,North,5,0.0,1.0,74,0.00,,---,0.17,VWS V13.01,2013-01-03 04:20:00,
2013-01-02 23:21:00,40.7,33.1,30.15,North,5,0.0,2.0,74,0.00,,---,0.17,VWS V13.01,2013-01-03 04:21:00,
2013-01-02 23:22:00,40.7,33.1,30.15,North,5,0.0,3.0,74,0.00,,---,0.17,VWS V13.01,2013-01-03 04:22:00,
2013-01-02 23:25:00,40.7,33.1,30.15,North,5,0.0,3.0,74,0.00,,---,0.17,VWS V13.01,2013-01-03 04:25:00,
2013-01-02 23:26:00,40.7,33.1,30.15,North,5,0.0,3.0,74,0.00,,---,0.17,VWS V13.01,2013-01-03 04:26:00,
2013-01-02 23:27:00,40.7,33.1,30.14,North,360,0.0,3.0,74,0.00,,---,0.17,VWS V13.01,2013-01-03 04:27:00,
2013-01-02 23:30:00,40.7,33.1,30.15,North,5,0.0,3.0,74,0.00,,---,0.17,VWS V13.01,2013-01-03 04:30:00,
2013-01-02 23:31:00,40.7,33.1,30.15,North,360,0.0,0.0,74,0.00,,---,0.17,VWS V13.01,2013-01-03 04:31:00,
2013-01-02 23:32:00,40.7,33.1,30.15,North,5,0.0,0.0,74,0.00,,---,0.17,VWS V13.01,2013-01-03 04:32:00,
2013-01-02 23:35:00,40.7,33.1,30.15,North,360,0.0,0.0,74,0.00,,---,0.17,VWS V13.01,2013-01-03 04:35:00,
2013-01-02 23:36:00,40.7,33.1,30.15,North,5,0.0,0.0,74,0.00,,---,0.17,VWS V13.01,2013-01-03 04:36:00,
2013-01-02 23:37:00,40.7,33.1,30.15,North,5,0.0,0.0,74,0.00,,---,0.17,VWS V13.01,2013-01-03 04:37:00,
2013-01-02 23:40:00,40.7,33.1,30.14,North,5,0.0,0.0,74,0.00,,---,0.17,VWS V13.01,2013-01-03 04:40:00,
2013-01-02 23:41:00,40.7,33.1,30.14,North,5,0.0,0.0,74,0.00,,---,0.17,VWS V13.01,2013-01-03 04:41:00,
2013-01-02 23:42:00,40.7,33.1,30.14,North,5,0.0,1.0,74,0.00,,---,0.17,VWS V13.01,2013-01-03 04:42:00,
2013-01-02 23:45:00,40.7,33.1,30.14,North,5,0.0,1.0,74,0.00,,---,0.17,VWS V13.01,2013-01-03 04:45:00,
2013-01-02 23:46:00,40.6,33.0,30.14,North,5,0.0,1.0,74,0.00,,---,0.17,VWS V13.01,2013-01-03 04:46:00,
2013-01-02 23:48:00,40.6,33.0,30.14,North,5,0.0,1.0,74,0.00,,---,0.17,VWS V13.01,2013-01-03 04:48:00,
2013-01-02 23:50:00,40.6,33.0,30.14,North,5,0.0,1.0,74,0.00,,---,0.17,VWS V13.01,2013-01-03 04:50:00,
2013-01-02 23:51:00,40.6,33.0,30.14,North,360,0.0,1.0,74,0.00,,---,0.17,VWS V13.01,2013-01-03 04:51:00,
2013-01-02 23:53:00,40.6,33.0,30.14,North,5,0.0,1.0,74,0.00,,---,0.17,VWS V13.01,2013-01-03 04:53:00,
2013-01-02 23:55:00,40.6,33.0,30.13,North,360,0.0,3.0,74,0.00,,---,0.17,VWS V13.01,2013-01-03 04:55:00,
2013-01-02 23:56:00,40.6,33.0,30.14,North,5,0.0,3.0,74,0.00,,---,0.17,VWS V13.01,2013-01-03 04:56:00,
2013-01-02 23:58:00,40.6,33.0,30.14,North,5,0.0,3.0,74,0.00,,---,0.17,VWS V13.01,2013-01-03 04:58:00,